Wetterdaten: Dienstag, 17.02.2026
Datum Zeit Temp. Aussen Temp. o. S. Temp +5cm Feuchte Auss Luftdruck Regen Sonnenschein Regendauer Solar Windböen Empfang
17.02.2026 00:00 3,4 °C 2,8 °C -0,6 °C 98 % 1000,1 hPa 0,0 l/m² 0 min 0 min 0 W/m² 12,9 km/h (3 Bft) 93,62 %
17.02.2026 00:02 3,4 °C 2,8 °C -0,6 °C 98 % 1000,1 hPa 0,0 l/m² 0 min 0 min 0 W/m² 12,9 km/h (3 Bft) 95,74 %
17.02.2026 00:04 3,4 °C 2,8 °C -0,6 °C 98 % 1000,1 hPa 0,0 l/m² 0 min 0 min 0 W/m² 12,9 km/h (3 Bft) 95,74 %
17.02.2026 00:07 3,4 °C 2,8 °C -0,6 °C 98 % 1000,1 hPa 0,0 l/m² 0 min 0 min 0 W/m² 16,1 km/h (3 Bft) 96,77 %
17.02.2026 00:08 3,4 °C 2,8 °C -0,6 °C 98 % 1000,1 hPa 0,0 l/m² 0 min 0 min 0 W/m² 9,7 km/h (2 Bft) 95,83 %
17.02.2026 00:10 3,4 °C 2,8 °C -0,6 °C 98 % 1000,1 hPa 0,0 l/m² 0 min 0 min 0 W/m² 6,4 km/h (2 Bft) 97,87 %
17.02.2026 00:12 3,4 °C 2,8 °C -0,6 °C 98 % 1000,2 hPa 0,0 l/m² 0 min 0 min 0 W/m² 12,9 km/h (3 Bft) 97,87 %
17.02.2026 00:14 3,4 °C 2,8 °C -0,6 °C 98 % 1000,3 hPa 0,0 l/m² 0 min 0 min 0 W/m² 9,7 km/h (2 Bft) 97,87 %
17.02.2026 00:16 3,4 °C 2,8 °C -0,6 °C 98 % 1000,2 hPa 0,0 l/m² 0 min 0 min 0 W/m² 9,7 km/h (2 Bft) 95,74 %
17.02.2026 00:18 3,4 °C 2,8 °C -0,6 °C 98 % 1000,3 hPa 0,0 l/m² 0 min 0 min 0 W/m² 6,4 km/h (2 Bft) 97,83 %
17.02.2026 00:20 3,4 °C 2,8 °C -0,6 °C 98 % 1000,3 hPa 0,0 l/m² 0 min 0 min 0 W/m² 6,4 km/h (2 Bft) 97,87 %
17.02.2026 00:22 3,4 °C 2,8 °C -0,6 °C 97 % 1000,4 hPa 0,0 l/m² 0 min 0 min 0 W/m² 6,4 km/h (2 Bft) 97,87 %
17.02.2026 00:24 3,4 °C 2,8 °C -0,6 °C 97 % 1000,4 hPa 0,0 l/m² 0 min 0 min 0 W/m² 6,4 km/h (2 Bft) 97,87 %
17.02.2026 00:26 3,4 °C 2,8 °C -0,6 °C 97 % 1000,5 hPa 0,0 l/m² 0 min 0 min 0 W/m² 6,4 km/h (2 Bft) 97,87 %
17.02.2026 00:28 3,4 °C 2,8 °C -0,6 °C 97 % 1000,5 hPa 0,0 l/m² 0 min 0 min 0 W/m² 16,1 km/h (3 Bft) 97,87 %
17.02.2026 00:30 3,4 °C 2,8 °C -0,6 °C 97 % 1000,5 hPa 0,0 l/m² 0 min 0 min 0 W/m² 6,4 km/h (2 Bft) 97,87 %
17.02.2026 00:32 3,4 °C 2,8 °C -0,6 °C 97 % 1000,6 hPa 0,0 l/m² 0 min 0 min 0 W/m² 6,4 km/h (2 Bft) 97,87 %
17.02.2026 00:34 3,4 °C 2,8 °C -0,6 °C 97 % 1000,6 hPa 0,0 l/m² 0 min 0 min 0 W/m² 9,7 km/h (2 Bft) 95,74 %
17.02.2026 00:36 3,3 °C 2,8 °C -0,6 °C 97 % 1000,6 hPa 0,0 l/m² 0 min 0 min 0 W/m² 3,2 km/h (1 Bft) 97,87 %
17.02.2026 00:38 3,4 °C 2,8 °C -0,6 °C 97 % 1000,6 hPa 0,0 l/m² 0 min 0 min 0 W/m² 6,4 km/h (2 Bft) 97,87 %
17.02.2026 00:40 3,3 °C 2,8 °C -0,6 °C 97 % 1000,6 hPa 0,0 l/m² 0 min 0 min 0 W/m² 3,2 km/h (1 Bft) 97,83 %
17.02.2026 00:42 3,3 °C 2,8 °C -0,6 °C 97 % 1000,6 hPa 0,0 l/m² 0 min 0 min 0 W/m² 3,2 km/h (1 Bft) 100,00 %
17.02.2026 00:44 3,3 °C 2,8 °C -0,6 °C 97 % 1000,6 hPa 0,0 l/m² 0 min 0 min 0 W/m² 3,2 km/h (1 Bft) 95,74 %
17.02.2026 00:46 3,3 °C 2,8 °C -0,6 °C 97 % 1000,6 hPa 0,0 l/m² 0 min 0 min 0 W/m² 3,2 km/h (1 Bft) 97,87 %
17.02.2026 00:48 3,3 °C 2,8 °C -0,6 °C 97 % 1000,6 hPa 0,0 l/m² 0 min 0 min 0 W/m² 9,7 km/h (2 Bft) 100,00 %
17.02.2026 00:50 3,3 °C 2,8 °C -0,6 °C 97 % 1000,7 hPa 0,0 l/m² 0 min 0 min 0 W/m² 6,4 km/h (2 Bft) 100,00 %
17.02.2026 00:52 3,3 °C 2,8 °C -0,6 °C 97 % 1000,7 hPa 0,0 l/m² 0 min 0 min 0 W/m² 6,4 km/h (2 Bft) 95,74 %
17.02.2026 00:54 3,3 °C 2,8 °C -0,6 °C 97 % 1000,7 hPa 0,0 l/m² 0 min 0 min 0 W/m² 16,1 km/h (3 Bft) 97,87 %
17.02.2026 00:56 3,3 °C 2,8 °C -0,6 °C 97 % 1000,7 hPa 0,0 l/m² 0 min 0 min 0 W/m² 12,9 km/h (3 Bft) 100,00 %
17.02.2026 00:58 3,3 °C 2,8 °C -0,6 °C 97 % 1000,7 hPa 0,0 l/m² 0 min 0 min 0 W/m² 6,4 km/h (2 Bft) 100,00 %
17.02.2026 01:00 3,3 °C 2,8 °C -0,6 °C 97 % 1000,9 hPa 0,0 l/m² 0 min 0 min 0 W/m² 12,9 km/h (3 Bft) 100,00 %
17.02.2026 01:02 3,3 °C 2,8 °C -0,6 °C 97 % 1000,9 hPa 0,0 l/m² 0 min 0 min 0 W/m² 16,1 km/h (3 Bft) 100,00 %
17.02.2026 01:04 3,3 °C 2,8 °C -0,6 °C 98 % 1000,8 hPa 0,0 l/m² 0 min 0 min 0 W/m² 3,2 km/h (1 Bft) 100,00 %
17.02.2026 01:06 3,3 °C 2,8 °C -0,6 °C 98 % 1000,9 hPa 0,0 l/m² 0 min 0 min 0 W/m² 9,7 km/h (2 Bft) 100,00 %
17.02.2026 01:08 3,3 °C 2,8 °C -0,6 °C 98 % 1000,9 hPa 0,0 l/m² 0 min 0 min 0 W/m² 12,9 km/h (3 Bft) 97,87 %
17.02.2026 01:10 3,3 °C 2,8 °C -0,6 °C 98 % 1000,9 hPa 0,0 l/m² 0 min 0 min 0 W/m² 16,1 km/h (3 Bft) 100,00 %
17.02.2026 01:12 3,3 °C 2,8 °C -0,6 °C 98 % 1000,9 hPa 0,0 l/m² 0 min 0 min 0 W/m² 6,4 km/h (2 Bft) 97,87 %
17.02.2026 01:14 3,3 °C 2,8 °C -0,6 °C 98 % 1001,0 hPa 0,0 l/m² 0 min 0 min 0 W/m² 16,1 km/h (3 Bft) 97,87 %
17.02.2026 01:16 3,3 °C 2,8 °C -0,6 °C 98 % 1001,0 hPa 0,0 l/m² 0 min 0 min 0 W/m² 12,9 km/h (3 Bft) 97,87 %
17.02.2026 01:18 3,3 °C 2,8 °C -0,6 °C 98 % 1001,0 hPa 0,0 l/m² 0 min 0 min 0 W/m² 12,9 km/h (3 Bft) 100,00 %
17.02.2026 01:20 3,3 °C 2,8 °C -0,6 °C 98 % 1001,0 hPa 0,0 l/m² 0 min 0 min 0 W/m² 6,4 km/h (2 Bft) 100,00 %
17.02.2026 01:22 3,3 °C 2,8 °C -0,6 °C 98 % 1001,1 hPa 0,0 l/m² 0 min 0 min 0 W/m² 19,3 km/h (3 Bft) 100,00 %
17.02.2026 01:24 3,3 °C 2,8 °C -0,6 °C 98 % 1001,1 hPa 0,0 l/m² 0 min 0 min 0 W/m² 12,9 km/h (3 Bft) 97,87 %
17.02.2026 01:26 3,3 °C 2,8 °C -0,6 °C 98 % 1001,1 hPa 0,0 l/m² 0 min 0 min 0 W/m² 12,9 km/h (3 Bft) 97,83 %
17.02.2026 01:28 3,3 °C 2,8 °C -0,6 °C 98 % 1001,1 hPa 0,0 l/m² 0 min 0 min 0 W/m² 12,9 km/h (3 Bft) 97,87 %
17.02.2026 01:30 3,3 °C 2,8 °C -0,6 °C 98 % 1001,1 hPa 0,0 l/m² 0 min 0 min 0 W/m² 16,1 km/h (3 Bft) 95,74 %
17.02.2026 01:32 3,3 °C 2,8 °C -0,6 °C 98 % 1001,2 hPa 0,0 l/m² 0 min 0 min 0 W/m² 12,9 km/h (3 Bft) 97,87 %
17.02.2026 01:34 3,3 °C 2,8 °C -0,6 °C 98 % 1001,1 hPa 0,0 l/m² 0 min 0 min 0 W/m² 6,4 km/h (2 Bft) 97,87 %
17.02.2026 01:36 3,3 °C 2,8 °C -0,6 °C 98 % 1001,2 hPa 0,0 l/m² 0 min 0 min 0 W/m² 12,9 km/h (3 Bft) 91,49 %
17.02.2026 01:38 3,2 °C 2,8 °C -0,6 °C 98 % 1001,2 hPa 0,0 l/m² 0 min 0 min 0 W/m² 12,9 km/h (3 Bft) 95,74 %
17.02.2026 01:40 3,2 °C 2,8 °C -0,6 °C 98 % 1001,3 hPa 0,0 l/m² 0 min 0 min 0 W/m² 6,4 km/h (2 Bft) 93,62 %
17.02.2026 01:42 3,2 °C 2,8 °C -0,6 °C 98 % 1001,3 hPa 0,0 l/m² 0 min 0 min 0 W/m² 3,2 km/h (1 Bft) 93,62 %
17.02.2026 01:44 3,2 °C 2,8 °C -0,6 °C 98 % 1001,4 hPa 0,0 l/m² 0 min 0 min 0 W/m² 3,2 km/h (1 Bft) 95,74 %
17.02.2026 01:46 3,2 °C 2,8 °C -0,6 °C 98 % 1001,4 hPa 0,0 l/m² 0 min 0 min 0 W/m² 12,9 km/h (3 Bft) 94,29 %
17.02.2026 01:48 3,2 °C 2,8 °C -0,6 °C 98 % 1001,4 hPa 0,0 l/m² 0 min 0 min 0 W/m² 12,9 km/h (3 Bft) 93,62 %
17.02.2026 01:50 3,2 °C 2,8 °C -0,6 °C 98 % 1001,4 hPa 0,0 l/m² 0 min 0 min 0 W/m² 6,4 km/h (2 Bft) 95,74 %
17.02.2026 01:52 3,2 °C 2,8 °C -0,6 °C 98 % 1001,4 hPa 0,0 l/m² 0 min 0 min 0 W/m² 6,4 km/h (2 Bft) 93,62 %
17.02.2026 01:54 3,2 °C 2,8 °C -0,6 °C 98 % 1001,5 hPa 0,0 l/m² 0 min 0 min 0 W/m² 12,9 km/h (3 Bft) 95,74 %
17.02.2026 01:56 3,2 °C 2,8 °C -0,6 °C 98 % 1001,4 hPa 0,0 l/m² 0 min 0 min 0 W/m² 12,9 km/h (3 Bft) 93,48 %
17.02.2026 01:58 3,2 °C 2,8 °C -0,6 °C 98 % 1001,4 hPa 0,0 l/m² 0 min 0 min 0 W/m² 6,4 km/h (2 Bft) 97,87 %
17.02.2026 02:00 3,2 °C 2,8 °C -0,6 °C 98 % 1001,4 hPa 0,0 l/m² 0 min 0 min 0 W/m² 12,9 km/h (3 Bft) 95,74 %
17.02.2026 02:02 3,2 °C 2,8 °C -0,6 °C 98 % 1001,4 hPa 0,0 l/m² 0 min 0 min 0 W/m² 3,2 km/h (1 Bft) 95,74 %
17.02.2026 02:04 3,2 °C 2,8 °C -0,6 °C 98 % 1001,5 hPa 0,0 l/m² 0 min 0 min 0 W/m² 16,1 km/h (3 Bft) 100,00 %
17.02.2026 02:06 3,2 °C 2,8 °C -0,6 °C 98 % 1001,5 hPa 0,0 l/m² 0 min 0 min 0 W/m² 9,7 km/h (2 Bft) 96,61 %
17.02.2026 02:08 3,2 °C 2,8 °C -0,6 °C 98 % 1001,6 hPa 0,0 l/m² 0 min 0 min 0 W/m² 6,4 km/h (2 Bft) 94,29 %
17.02.2026 02:10 3,2 °C 2,8 °C -0,6 °C 98 % 1001,6 hPa 0,0 l/m² 0 min 0 min 0 W/m² 3,2 km/h (1 Bft) 97,87 %
17.02.2026 02:14 3,3 °C 2,8 °C -0,6 °C 98 % 1001,8 hPa 0,2 l/m² 0 min 0 min 0 W/m² 6,4 km/h (2 Bft) 100,00 %
17.02.2026 02:16 3,3 °C 2,8 °C -0,6 °C 98 % 1001,8 hPa 0,0 l/m² 0 min 0 min 0 W/m² 6,4 km/h (2 Bft) 97,87 %
17.02.2026 02:18 3,3 °C 2,8 °C -0,6 °C 98 % 1001,8 hPa 0,0 l/m² 0 min 0 min 0 W/m² 6,4 km/h (2 Bft) 97,14 %
17.02.2026 02:20 3,3 °C 2,8 °C -0,6 °C 98 % 1001,9 hPa 0,0 l/m² 0 min 0 min 0 W/m² 12,9 km/h (3 Bft) 97,87 %
17.02.2026 02:22 3,3 °C 2,8 °C -0,6 °C 98 % 1001,9 hPa 0,2 l/m² 0 min 0 min 0 W/m² 12,9 km/h (3 Bft) 97,87 %
17.02.2026 02:27 3,3 °C 2,8 °C -0,6 °C 98 % 1001,9 hPa 0,0 l/m² 0 min 0 min 0 W/m² 6,4 km/h (2 Bft) 100,00 %
17.02.2026 02:28 3,3 °C 2,8 °C -0,6 °C 98 % 1001,9 hPa 0,0 l/m² 0 min 0 min 0 W/m² 3,2 km/h (1 Bft) 100,00 %
17.02.2026 02:30 3,3 °C 2,8 °C -0,6 °C 98 % 1002,0 hPa 0,0 l/m² 0 min 0 min 0 W/m² 6,4 km/h (2 Bft) 97,87 %
17.02.2026 02:32 3,3 °C 2,8 °C -0,6 °C 98 % 1002,0 hPa 0,0 l/m² 0 min 0 min 0 W/m² 6,4 km/h (2 Bft) 100,00 %
17.02.2026 02:34 3,3 °C 2,8 °C -0,6 °C 98 % 1001,9 hPa 0,0 l/m² 0 min 0 min 0 W/m² 6,4 km/h (2 Bft) 100,00 %
17.02.2026 02:36 3,3 °C 2,8 °C -0,6 °C 98 % 1001,9 hPa 0,0 l/m² 0 min 0 min 0 W/m² 6,4 km/h (2 Bft) 100,00 %
17.02.2026 02:38 3,3 °C 2,8 °C -0,6 °C 98 % 1001,9 hPa 0,0 l/m² 0 min 0 min 0 W/m² 6,4 km/h (2 Bft) 100,00 %
17.02.2026 02:40 3,3 °C 2,8 °C -0,6 °C 98 % 1002,0 hPa 0,0 l/m² 0 min 0 min 0 W/m² 6,4 km/h (2 Bft) 100,00 %
17.02.2026 02:42 3,3 °C 2,8 °C -0,6 °C 98 % 1002,0 hPa 0,0 l/m² 0 min 0 min 0 W/m² 6,4 km/h (2 Bft) 100,00 %
17.02.2026 02:44 3,3 °C 2,8 °C -0,6 °C 98 % 1002,0 hPa 0,0 l/m² 0 min 0 min 0 W/m² 6,4 km/h (2 Bft) 97,87 %
17.02.2026 02:46 3,3 °C 2,8 °C -0,6 °C 98 % 1002,1 hPa 0,0 l/m² 0 min 0 min 0 W/m² 6,4 km/h (2 Bft) 100,00 %
17.02.2026 02:48 3,3 °C 2,8 °C -0,6 °C 98 % 1002,0 hPa 0,2 l/m² 0 min 0 min 0 W/m² 6,4 km/h (2 Bft) 100,00 %
17.02.2026 02:50 3,3 °C 2,8 °C -0,6 °C 98 % 1002,0 hPa 0,0 l/m² 0 min 0 min 0 W/m² 3,2 km/h (1 Bft) 100,00 %
17.02.2026 02:52 3,4 °C 2,8 °C -0,6 °C 98 % 1002,1 hPa 0,0 l/m² 0 min 0 min 0 W/m² 6,4 km/h (2 Bft) 100,00 %
17.02.2026 02:54 3,4 °C 2,8 °C -0,6 °C 98 % 1002,1 hPa 0,2 l/m² 0 min 0 min 0 W/m² 6,4 km/h (2 Bft) 97,83 %
17.02.2026 02:56 3,4 °C 2,8 °C -0,6 °C 98 % 1002,2 hPa 0,0 l/m² 0 min 0 min 0 W/m² 6,4 km/h (2 Bft) 97,87 %
17.02.2026 02:58 3,4 °C 2,8 °C 0,0 °C 98 % 1002,2 hPa 0,0 l/m² 0 min 0 min 0 W/m² 6,4 km/h (2 Bft) 97,87 %
17.02.2026 03:00 3,4 °C 2,8 °C 0,0 °C 98 % 1002,3 hPa 0,0 l/m² 0 min 0 min 0 W/m² 6,4 km/h (2 Bft) 97,87 %
17.02.2026 03:02 3,4 °C 2,8 °C -0,6 °C 98 % 1002,3 hPa 0,0 l/m² 0 min 0 min 0 W/m² 6,4 km/h (2 Bft) 97,87 %
17.02.2026 03:04 3,4 °C 2,8 °C 0,0 °C 98 % 1002,3 hPa 0,2 l/m² 0 min 0 min 0 W/m² 6,4 km/h (2 Bft) 97,92 %
17.02.2026 03:06 3,4 °C 2,8 °C -0,6 °C 98 % 1002,3 hPa 0,2 l/m² 0 min 2 min 0 W/m² 12,9 km/h (3 Bft) 97,87 %
17.02.2026 03:08 3,4 °C 2,8 °C -0,6 °C 98 % 1002,3 hPa 0,0 l/m² 0 min 0 min 0 W/m² 16,1 km/h (3 Bft) 95,74 %
17.02.2026 03:10 3,4 °C 2,8 °C -0,6 °C 98 % 1002,3 hPa 0,0 l/m² 0 min 0 min 0 W/m² 9,7 km/h (2 Bft) 97,87 %
17.02.2026 03:12 3,3 °C 2,8 °C -0,6 °C 98 % 1002,3 hPa 0,0 l/m² 0 min 0 min 0 W/m² 12,9 km/h (3 Bft) 97,87 %
17.02.2026 03:14 3,3 °C 2,8 °C -0,6 °C 98 % 1002,3 hPa 0,0 l/m² 0 min 0 min 0 W/m² 6,4 km/h (2 Bft) 95,74 %
17.02.2026 03:16 3,3 °C 2,8 °C -0,6 °C 98 % 1002,3 hPa 0,0 l/m² 0 min 0 min 0 W/m² 12,9 km/h (3 Bft) 93,48 %
17.02.2026 03:18 3,3 °C 2,8 °C -0,6 °C 98 % 1002,3 hPa 0,0 l/m² 0 min 0 min 0 W/m² 6,4 km/h (2 Bft) 93,62 %
17.02.2026 03:20 3,3 °C 2,8 °C -0,6 °C 98 % 1002,2 hPa 0,0 l/m² 0 min 0 min 0 W/m² 9,7 km/h (2 Bft) 95,74 %
17.02.2026 03:22 3,3 °C 2,8 °C -0,6 °C 98 % 1002,3 hPa 0,0 l/m² 0 min 0 min 0 W/m² 6,4 km/h (2 Bft) 95,74 %
17.02.2026 03:24 3,3 °C 2,8 °C -0,6 °C 98 % 1002,3 hPa 0,0 l/m² 0 min 0 min 0 W/m² 9,7 km/h (2 Bft) 93,62 %
17.02.2026 03:26 3,3 °C 2,8 °C -0,6 °C 98 % 1002,4 hPa 0,2 l/m² 0 min 0 min 0 W/m² 12,9 km/h (3 Bft) 93,62 %
17.02.2026 03:28 3,3 °C 2,8 °C -0,6 °C 98 % 1002,4 hPa 0,0 l/m² 0 min 0 min 0 W/m² 12,9 km/h (3 Bft) 95,74 %
17.02.2026 03:30 3,3 °C 2,8 °C -0,6 °C 98 % 1002,4 hPa 0,2 l/m² 0 min 0 min 0 W/m² 6,4 km/h (2 Bft) 93,62 %
17.02.2026 03:32 3,3 °C 2,8 °C 0,0 °C 98 % 1002,4 hPa 0,0 l/m² 0 min 0 min 0 W/m² 12,9 km/h (3 Bft) 95,74 %
17.02.2026 03:34 3,3 °C 2,8 °C 0,0 °C 98 % 1002,4 hPa 0,0 l/m² 0 min 0 min 0 W/m² 6,4 km/h (2 Bft) 94,29 %
17.02.2026 03:36 3,3 °C 2,8 °C 0,0 °C 98 % 1002,4 hPa 0,0 l/m² 0 min 0 min 0 W/m² 6,4 km/h (2 Bft) 96,61 %
17.02.2026 03:38 3,3 °C 2,8 °C -0,6 °C 98 % 1002,4 hPa 0,0 l/m² 0 min 0 min 0 W/m² 16,1 km/h (3 Bft) 94,29 %
17.02.2026 03:40 3,3 °C 2,8 °C -0,6 °C 98 % 1002,4 hPa 0,0 l/m² 0 min 0 min 0 W/m² 6,4 km/h (2 Bft) 97,87 %
17.02.2026 03:42 3,3 °C 2,8 °C 0,0 °C 98 % 1002,4 hPa 0,0 l/m² 0 min 0 min 0 W/m² 6,4 km/h (2 Bft) 95,74 %
17.02.2026 03:44 3,3 °C 2,8 °C 0,0 °C 98 % 1002,4 hPa 0,0 l/m² 0 min 0 min 0 W/m² 6,4 km/h (2 Bft) 91,30 %
17.02.2026 03:46 3,3 °C 2,8 °C -0,6 °C 98 % 1002,3 hPa 0,0 l/m² 0 min 0 min 0 W/m² 6,4 km/h (2 Bft) 93,62 %
17.02.2026 03:48 3,3 °C 2,8 °C -0,6 °C 98 % 1002,3 hPa 0,0 l/m² 0 min 0 min 0 W/m² 6,4 km/h (2 Bft) 93,62 %
17.02.2026 03:50 3,3 °C 2,8 °C 0,0 °C 98 % 1002,3 hPa 0,0 l/m² 0 min 0 min 0 W/m² 6,4 km/h (2 Bft) 97,87 %
17.02.2026 03:52 3,3 °C 2,8 °C 0,0 °C 98 % 1002,3 hPa 0,0 l/m² 0 min 0 min 0 W/m² 6,4 km/h (2 Bft) 97,87 %
17.02.2026 03:54 3,3 °C 2,8 °C 0,0 °C 98 % 1002,3 hPa 0,0 l/m² 0 min 0 min 0 W/m² 6,4 km/h (2 Bft) 95,74 %
17.02.2026 03:56 3,3 °C 2,8 °C 0,0 °C 98 % 1002,3 hPa 0,0 l/m² 0 min 0 min 0 W/m² 3,2 km/h (1 Bft) 100,00 %
17.02.2026 03:58 3,4 °C 2,8 °C 0,0 °C 98 % 1002,4 hPa 0,0 l/m² 0 min 0 min 0 W/m² 3,2 km/h (1 Bft) 97,87 %
17.02.2026 04:00 3,4 °C 2,8 °C 0,0 °C 98 % 1002,4 hPa 0,0 l/m² 0 min 0 min 0 W/m² 3,2 km/h (1 Bft) 100,00 %
17.02.2026 04:02 3,4 °C 2,8 °C 0,0 °C 98 % 1002,3 hPa 0,0 l/m² 0 min 0 min 0 W/m² 6,4 km/h (2 Bft) 97,87 %
17.02.2026 04:04 3,4 °C 2,8 °C 0,0 °C 98 % 1002,3 hPa 0,0 l/m² 0 min 0 min 0 W/m² 3,2 km/h (1 Bft) 91,67 %
17.02.2026 04:06 3,4 °C 2,8 °C 0,0 °C 98 % 1002,4 hPa 0,0 l/m² 0 min 0 min 0 W/m² 3,2 km/h (1 Bft) 96,55 %
17.02.2026 04:08 3,4 °C 2,8 °C 0,0 °C 98 % 1002,5 hPa 0,0 l/m² 0 min 0 min 0 W/m² 3,2 km/h (1 Bft) 100,00 %
17.02.2026 04:10 3,4 °C 2,8 °C 0,0 °C 98 % 1002,5 hPa 0,0 l/m² 0 min 0 min 0 W/m² 3,2 km/h (1 Bft) 97,87 %
17.02.2026 04:12 3,4 °C 2,8 °C 0,0 °C 98 % 1002,6 hPa 0,2 l/m² 0 min 0 min 0 W/m² 3,2 km/h (1 Bft) 93,62 %
17.02.2026 04:14 3,4 °C 2,8 °C 0,0 °C 98 % 1002,5 hPa 0,0 l/m² 0 min 0 min 0 W/m² 6,4 km/h (2 Bft) 97,87 %
17.02.2026 04:16 3,4 °C 2,8 °C 0,0 °C 98 % 1002,6 hPa 0,2 l/m² 0 min 0 min 0 W/m² 6,4 km/h (2 Bft) 97,87 %
17.02.2026 04:18 3,4 °C 2,8 °C 0,0 °C 98 % 1002,7 hPa 0,0 l/m² 0 min 0 min 0 W/m² 3,2 km/h (1 Bft) 97,87 %
17.02.2026 04:20 3,4 °C 2,8 °C 0,0 °C 98 % 1002,8 hPa 0,2 l/m² 0 min 0 min 0 W/m² 9,7 km/h (2 Bft) 97,87 %
17.02.2026 04:22 3,4 °C 2,8 °C -0,6 °C 98 % 1002,8 hPa 0,2 l/m² 0 min 0 min 0 W/m² 16,1 km/h (3 Bft) 97,87 %
17.02.2026 04:24 3,3 °C 2,8 °C 0,0 °C 98 % 1002,8 hPa 0,0 l/m² 0 min 0 min 0 W/m² 16,1 km/h (3 Bft) 97,87 %
17.02.2026 04:26 3,3 °C 2,8 °C -0,6 °C 98 % 1002,8 hPa 0,2 l/m² 0 min 0 min 0 W/m² 19,3 km/h (3 Bft) 97,87 %
17.02.2026 04:28 3,3 °C 2,8 °C -0,6 °C 98 % 1002,8 hPa 0,0 l/m² 0 min 0 min 0 W/m² 6,4 km/h (2 Bft) 97,87 %
17.02.2026 04:30 3,2 °C 2,8 °C -0,6 °C 98 % 1002,7 hPa 0,2 l/m² 0 min 0 min 0 W/m² 6,4 km/h (2 Bft) 97,87 %
17.02.2026 04:32 3,2 °C 2,2 °C -0,6 °C 98 % 1002,8 hPa 0,0 l/m² 0 min 0 min 0 W/m² 12,9 km/h (3 Bft) 97,83 %
17.02.2026 04:34 3,2 °C 2,2 °C -0,6 °C 98 % 1002,7 hPa 0,0 l/m² 0 min 0 min 0 W/m² 6,4 km/h (2 Bft) 97,87 %
17.02.2026 04:36 3,2 °C 2,2 °C -0,6 °C 98 % 1002,8 hPa 0,0 l/m² 0 min 0 min 0 W/m² 3,2 km/h (1 Bft) 97,87 %
17.02.2026 04:38 3,2 °C 2,2 °C -0,6 °C 98 % 1002,7 hPa 0,0 l/m² 0 min 0 min 0 W/m² 6,4 km/h (2 Bft) 97,87 %
17.02.2026 04:40 3,2 °C 2,2 °C -0,6 °C 98 % 1002,8 hPa 0,0 l/m² 0 min 0 min 0 W/m² 3,2 km/h (1 Bft) 97,87 %
17.02.2026 04:42 3,1 °C 2,2 °C -0,6 °C 98 % 1002,8 hPa 0,0 l/m² 0 min 0 min 0 W/m² 3,2 km/h (1 Bft) 95,74 %
17.02.2026 04:44 3,1 °C 2,2 °C -0,6 °C 98 % 1002,8 hPa 0,0 l/m² 0 min 0 min 0 W/m² 3,2 km/h (1 Bft) 97,87 %
17.02.2026 04:46 3,1 °C 2,2 °C -0,6 °C 98 % 1002,9 hPa 0,0 l/m² 0 min 0 min 0 W/m² 3,2 km/h (1 Bft) 97,87 %
17.02.2026 04:48 3,1 °C 2,2 °C -0,6 °C 98 % 1003,0 hPa 0,0 l/m² 0 min 0 min 0 W/m² 6,4 km/h (2 Bft) 100,00 %
17.02.2026 04:50 3,1 °C 2,2 °C -0,6 °C 98 % 1003,0 hPa 0,2 l/m² 0 min 0 min 0 W/m² 3,2 km/h (1 Bft) 100,00 %
17.02.2026 04:52 3,1 °C 2,2 °C -0,6 °C 98 % 1003,0 hPa 0,0 l/m² 0 min 0 min 0 W/m² 3,2 km/h (1 Bft) 100,00 %
17.02.2026 04:54 3,1 °C 2,2 °C -0,6 °C 98 % 1003,0 hPa 0,0 l/m² 0 min 0 min 0 W/m² 9,7 km/h (2 Bft) 100,00 %
17.02.2026 04:56 3,1 °C 2,2 °C -0,6 °C 98 % 1003,0 hPa 0,0 l/m² 0 min 0 min 0 W/m² 0,0 km/h (0 Bft) 97,83 %
17.02.2026 04:58 3,1 °C 2,2 °C -0,6 °C 98 % 1003,0 hPa 0,0 l/m² 0 min 0 min 0 W/m² 0,0 km/h (0 Bft) 100,00 %
17.02.2026 05:00 3,1 °C 2,2 °C -0,6 °C 98 % 1003,0 hPa 0,0 l/m² 0 min 0 min 0 W/m² 3,2 km/h (1 Bft) 97,87 %
17.02.2026 05:02 3,1 °C 2,2 °C -0,6 °C 98 % 1003,1 hPa 0,0 l/m² 0 min 0 min 0 W/m² 0,0 km/h (0 Bft) 100,00 %
17.02.2026 05:04 3,1 °C 2,2 °C -0,6 °C 98 % 1003,1 hPa 0,0 l/m² 0 min 0 min 0 W/m² 3,2 km/h (1 Bft) 100,00 %
17.02.2026 05:06 3,1 °C 2,8 °C -0,6 °C 98 % 1003,1 hPa 0,0 l/m² 0 min 0 min 0 W/m² 3,2 km/h (1 Bft) 97,87 %
17.02.2026 05:08 3,1 °C 2,8 °C -0,6 °C 98 % 1003,2 hPa 0,0 l/m² 0 min 0 min 0 W/m² 0,0 km/h (0 Bft) 97,87 %
17.02.2026 05:10 3,1 °C 2,8 °C -0,6 °C 98 % 1003,2 hPa 0,0 l/m² 0 min 0 min 0 W/m² 3,2 km/h (1 Bft) 95,74 %
17.02.2026 05:12 3,1 °C 2,8 °C -0,6 °C 98 % 1003,2 hPa 0,0 l/m² 0 min 0 min 0 W/m² 0,0 km/h (0 Bft) 97,87 %
17.02.2026 05:14 3,1 °C 2,8 °C -0,6 °C 98 % 1003,2 hPa 0,0 l/m² 0 min 0 min 0 W/m² 0,0 km/h (0 Bft) 97,87 %
17.02.2026 05:16 3,1 °C 2,8 °C -0,6 °C 98 % 1003,3 hPa 0,0 l/m² 0 min 0 min 0 W/m² 0,0 km/h (0 Bft) 97,87 %
17.02.2026 05:18 3,1 °C 2,8 °C -0,6 °C 98 % 1003,3 hPa 0,0 l/m² 0 min 0 min 0 W/m² 0,0 km/h (0 Bft) 97,83 %
17.02.2026 05:20 3,1 °C 2,8 °C -0,6 °C 98 % 1003,3 hPa 0,0 l/m² 0 min 0 min 0 W/m² 3,2 km/h (1 Bft) 97,87 %
17.02.2026 05:22 3,1 °C 2,8 °C -0,6 °C 98 % 1003,3 hPa 0,0 l/m² 0 min 0 min 0 W/m² 3,2 km/h (1 Bft) 95,74 %
17.02.2026 05:24 3,1 °C 2,8 °C -0,6 °C 98 % 1003,3 hPa 0,0 l/m² 0 min 0 min 0 W/m² 3,2 km/h (1 Bft) 97,87 %
17.02.2026 05:26 3,1 °C 2,8 °C -0,6 °C 98 % 1003,3 hPa 0,0 l/m² 0 min 0 min 0 W/m² 0,0 km/h (0 Bft) 97,87 %
17.02.2026 05:28 3,2 °C 2,8 °C -0,6 °C 98 % 1003,3 hPa 0,0 l/m² 0 min 0 min 0 W/m² 3,2 km/h (1 Bft) 97,87 %
17.02.2026 05:30 3,2 °C 2,8 °C 0,0 °C 98 % 1003,3 hPa 0,0 l/m² 0 min 0 min 0 W/m² 0,0 km/h (0 Bft) 97,87 %
17.02.2026 05:32 3,2 °C 2,8 °C 0,0 °C 98 % 1003,3 hPa 0,0 l/m² 0 min 0 min 0 W/m² 3,2 km/h (1 Bft) 100,00 %
17.02.2026 05:34 3,2 °C 2,8 °C 0,0 °C 98 % 1003,3 hPa 0,0 l/m² 0 min 0 min 0 W/m² 3,2 km/h (1 Bft) 97,87 %
17.02.2026 05:36 3,2 °C 2,8 °C 0,0 °C 98 % 1003,3 hPa 0,0 l/m² 0 min 0 min 0 W/m² 3,2 km/h (1 Bft) 97,87 %
17.02.2026 05:38 3,2 °C 2,8 °C 0,0 °C 98 % 1003,3 hPa 0,0 l/m² 0 min 0 min 0 W/m² 3,2 km/h (1 Bft) 100,00 %
17.02.2026 05:40 3,2 °C 2,8 °C 0,0 °C 98 % 1003,3 hPa 0,0 l/m² 0 min 0 min 0 W/m² 3,2 km/h (1 Bft) 100,00 %
17.02.2026 05:42 3,2 °C 2,8 °C 0,0 °C 98 % 1003,3 hPa 0,0 l/m² 0 min 0 min 0 W/m² 0,0 km/h (0 Bft) 100,00 %
17.02.2026 05:44 3,2 °C 2,8 °C 0,0 °C 98 % 1003,3 hPa 0,0 l/m² 0 min 0 min 0 W/m² 0,0 km/h (0 Bft) 100,00 %
17.02.2026 05:46 3,2 °C 2,8 °C 0,0 °C 98 % 1003,4 hPa 0,0 l/m² 0 min 0 min 0 W/m² 0,0 km/h (0 Bft) 100,00 %
17.02.2026 05:48 3,2 °C 2,8 °C 0,0 °C 98 % 1003,4 hPa 0,0 l/m² 0 min 0 min 0 W/m² 3,2 km/h (1 Bft) 97,87 %
17.02.2026 05:50 3,2 °C 2,8 °C 0,0 °C 98 % 1003,5 hPa 0,0 l/m² 0 min 0 min 0 W/m² 3,2 km/h (1 Bft) 100,00 %
17.02.2026 05:52 3,2 °C 2,8 °C 0,0 °C 98 % 1003,5 hPa 0,0 l/m² 0 min 0 min 0 W/m² 3,2 km/h (1 Bft) 100,00 %
17.02.2026 05:54 3,3 °C 2,8 °C 0,0 °C 98 % 1003,5 hPa 0,0 l/m² 0 min 0 min 0 W/m² 0,0 km/h (0 Bft) 100,00 %
17.02.2026 05:56 3,3 °C 2,8 °C 0,0 °C 98 % 1003,5 hPa 0,0 l/m² 0 min 0 min 0 W/m² 3,2 km/h (1 Bft) 100,00 %
17.02.2026 05:58 3,3 °C 2,8 °C 0,0 °C 98 % 1003,6 hPa 0,0 l/m² 0 min 0 min 0 W/m² 6,4 km/h (2 Bft) 100,00 %
17.02.2026 06:00 3,3 °C 2,8 °C 0,0 °C 98 % 1003,6 hPa 0,0 l/m² 0 min 0 min 0 W/m² 3,2 km/h (1 Bft) 100,00 %
17.02.2026 06:02 3,3 °C 2,8 °C 0,0 °C 98 % 1003,6 hPa 0,0 l/m² 0 min 0 min 0 W/m² 3,2 km/h (1 Bft) 97,87 %
17.02.2026 06:04 3,4 °C 2,8 °C 0,0 °C 98 % 1003,6 hPa 0,0 l/m² 0 min 0 min 0 W/m² 3,2 km/h (1 Bft) 97,92 %
17.02.2026 06:07 3,4 °C 2,8 °C 0,0 °C 98 % 1003,7 hPa 0,0 l/m² 0 min 0 min 0 W/m² 3,2 km/h (1 Bft) 98,70 %
17.02.2026 06:08 3,4 °C 2,8 °C 0,0 °C 98 % 1003,7 hPa 0,0 l/m² 0 min 0 min 0 W/m² 3,2 km/h (1 Bft) 83,33 %
17.02.2026 06:12 3,5 °C 2,8 °C 0,0 °C 98 % 1003,7 hPa 0,0 l/m² 0 min 0 min 0 W/m² 0,0 km/h (0 Bft) 98,25 %
17.02.2026 06:14 3,5 °C 2,8 °C 0,0 °C 98 % 1003,7 hPa 0,0 l/m² 0 min 0 min 0 W/m² 0,0 km/h (0 Bft) 97,87 %
17.02.2026 06:16 3,6 °C 2,8 °C 0,0 °C 98 % 1003,8 hPa 0,0 l/m² 0 min 0 min 0 W/m² 0,0 km/h (0 Bft) 97,92 %
17.02.2026 06:18 3,6 °C 2,8 °C 0,0 °C 98 % 1003,8 hPa 0,0 l/m² 0 min 0 min 0 W/m² 0,0 km/h (0 Bft) 97,14 %
17.02.2026 06:20 3,6 °C 2,8 °C 0,0 °C 98 % 1003,8 hPa 0,0 l/m² 0 min 0 min 0 W/m² 0,0 km/h (0 Bft) 97,87 %
17.02.2026 06:22 3,6 °C 2,8 °C 0,0 °C 98 % 1003,8 hPa 0,0 l/m² 0 min 0 min 0 W/m² 0,0 km/h (0 Bft) 95,74 %
17.02.2026 06:24 3,6 °C 2,8 °C 0,0 °C 98 % 1003,8 hPa 0,0 l/m² 0 min 0 min 0 W/m² 0,0 km/h (0 Bft) 95,74 %
17.02.2026 06:26 3,6 °C 2,8 °C 0,0 °C 98 % 1003,8 hPa 0,0 l/m² 0 min 0 min 0 W/m² 0,0 km/h (0 Bft) 97,87 %
17.02.2026 06:28 3,6 °C 2,8 °C 0,0 °C 98 % 1003,8 hPa 0,0 l/m² 0 min 0 min 0 W/m² 0,0 km/h (0 Bft) 97,87 %
17.02.2026 06:30 3,6 °C 2,8 °C 0,0 °C 98 % 1003,9 hPa 0,0 l/m² 0 min 0 min 0 W/m² 0,0 km/h (0 Bft) 95,74 %
17.02.2026 06:32 3,6 °C 2,8 °C 0,0 °C 98 % 1003,8 hPa 0,0 l/m² 0 min 0 min 0 W/m² 0,0 km/h (0 Bft) 97,87 %
17.02.2026 06:34 3,6 °C 2,8 °C 0,0 °C 98 % 1003,9 hPa 0,0 l/m² 0 min 0 min 0 W/m² 0,0 km/h (0 Bft) 95,74 %
17.02.2026 06:36 3,6 °C 2,8 °C 0,0 °C 98 % 1003,8 hPa 0,0 l/m² 0 min 0 min 0 W/m² 0,0 km/h (0 Bft) 94,44 %
17.02.2026 06:38 3,6 °C 2,8 °C 0,0 °C 98 % 1003,9 hPa 0,0 l/m² 0 min 0 min 0 W/m² 0,0 km/h (0 Bft) 93,62 %
17.02.2026 06:40 3,6 °C 2,8 °C 0,0 °C 98 % 1003,9 hPa 0,0 l/m² 0 min 0 min 0 W/m² 0,0 km/h (0 Bft) 95,74 %
17.02.2026 06:42 3,6 °C 2,8 °C 0,0 °C 98 % 1004,0 hPa 0,0 l/m² 0 min 0 min 0 W/m² 0,0 km/h (0 Bft) 95,74 %
17.02.2026 06:44 3,6 °C 2,8 °C 0,0 °C 98 % 1004,0 hPa 0,0 l/m² 0 min 0 min 0 W/m² 0,0 km/h (0 Bft) 95,74 %
17.02.2026 06:46 3,6 °C 3,3 °C 0,0 °C 98 % 1004,0 hPa 0,0 l/m² 0 min 0 min 0 W/m² 6,4 km/h (2 Bft) 95,74 %
17.02.2026 06:48 3,7 °C 3,3 °C 0,0 °C 98 % 1004,0 hPa 0,0 l/m² 0 min 0 min 0 W/m² 0,0 km/h (0 Bft) 95,74 %
17.02.2026 06:50 3,7 °C 3,3 °C 0,0 °C 98 % 1004,0 hPa 0,0 l/m² 0 min 0 min 0 W/m² 0,0 km/h (0 Bft) 95,65 %
17.02.2026 06:52 3,7 °C 3,3 °C 0,0 °C 98 % 1004,0 hPa 0,0 l/m² 0 min 0 min 0 W/m² 0,0 km/h (0 Bft) 91,49 %
17.02.2026 06:54 3,8 °C 3,3 °C 0,0 °C 98 % 1004,0 hPa 0,0 l/m² 0 min 0 min 0 W/m² 0,0 km/h (0 Bft) 94,00 %
17.02.2026 06:56 3,8 °C 3,3 °C 0,6 °C 98 % 1004,0 hPa 0,0 l/m² 0 min 0 min 0 W/m² 0,0 km/h (0 Bft) 97,87 %
17.02.2026 06:58 3,8 °C 3,3 °C 0,6 °C 98 % 1004,1 hPa 0,0 l/m² 0 min 0 min 0 W/m² 0,0 km/h (0 Bft) 95,74 %
17.02.2026 07:00 3,8 °C 3,3 °C 0,6 °C 98 % 1004,1 hPa 0,0 l/m² 0 min 0 min 0 W/m² 0,0 km/h (0 Bft) 95,74 %
17.02.2026 07:02 3,8 °C 3,3 °C 0,6 °C 98 % 1004,1 hPa 0,0 l/m² 0 min 0 min 0 W/m² 0,0 km/h (0 Bft) 89,36 %
17.02.2026 07:04 3,9 °C 3,3 °C 0,6 °C 98 % 1004,1 hPa 0,0 l/m² 0 min 0 min 0 W/m² 3,2 km/h (1 Bft) 95,74 %
17.02.2026 07:06 3,9 °C 3,3 °C 0,6 °C 98 % 1004,1 hPa 0,0 l/m² 0 min 0 min 0 W/m² 3,2 km/h (1 Bft) 95,74 %
17.02.2026 07:08 3,9 °C 3,3 °C 0,6 °C 98 % 1004,1 hPa 0,0 l/m² 0 min 0 min 0 W/m² 0,0 km/h (0 Bft) 93,75 %
17.02.2026 07:10 4,0 °C 3,3 °C 0,6 °C 98 % 1004,1 hPa 0,0 l/m² 0 min 0 min 0 W/m² 12,9 km/h (3 Bft) 93,62 %
17.02.2026 07:12 4,1 °C 3,3 °C 0,6 °C 99 % 1004,1 hPa 0,0 l/m² 0 min 0 min 0 W/m² 3,2 km/h (1 Bft) 95,65 %
17.02.2026 07:14 4,1 °C 3,9 °C 0,6 °C 99 % 1004,1 hPa 0,0 l/m² 0 min 0 min 0 W/m² 6,4 km/h (2 Bft) 95,74 %
17.02.2026 07:16 4,2 °C 3,9 °C 0,6 °C 99 % 1004,2 hPa 0,0 l/m² 0 min 0 min 0 W/m² 9,7 km/h (2 Bft) 95,74 %
17.02.2026 07:18 4,2 °C 3,9 °C 0,6 °C 99 % 1004,2 hPa 0,0 l/m² 0 min 0 min 0 W/m² 3,2 km/h (1 Bft) 97,87 %
17.02.2026 07:20 4,2 °C 3,9 °C 0,6 °C 99 % 1004,2 hPa 0,0 l/m² 0 min 0 min 0 W/m² 0,0 km/h (0 Bft) 95,74 %
17.02.2026 07:22 4,2 °C 3,9 °C 0,6 °C 99 % 1004,3 hPa 0,0 l/m² 0 min 0 min 0 W/m² 0,0 km/h (0 Bft) 95,74 %
17.02.2026 07:24 4,2 °C 3,9 °C 0,6 °C 99 % 1004,3 hPa 0,0 l/m² 0 min 0 min 0 W/m² 0,0 km/h (0 Bft) 95,74 %
17.02.2026 07:26 4,2 °C 3,9 °C 0,6 °C 99 % 1004,3 hPa 0,0 l/m² 0 min 0 min 0 W/m² 12,9 km/h (3 Bft) 91,49 %
17.02.2026 07:28 4,2 °C 3,9 °C 0,6 °C 98 % 1004,4 hPa 0,0 l/m² 0 min 0 min 0 W/m² 6,4 km/h (2 Bft) 97,87 %
17.02.2026 07:30 4,2 °C 3,9 °C 0,6 °C 98 % 1004,3 hPa 0,0 l/m² 0 min 0 min 0 W/m² 6,4 km/h (2 Bft) 93,62 %
17.02.2026 07:32 4,2 °C 3,9 °C 0,6 °C 98 % 1004,4 hPa 0,0 l/m² 0 min 0 min 0 W/m² 9,7 km/h (2 Bft) 100,00 %
17.02.2026 07:34 4,2 °C 3,9 °C 0,6 °C 98 % 1004,4 hPa 0,0 l/m² 0 min 0 min 0 W/m² 6,4 km/h (2 Bft) 100,00 %
17.02.2026 07:36 4,2 °C 3,9 °C 0,6 °C 98 % 1004,4 hPa 0,0 l/m² 0 min 0 min 0 W/m² 16,1 km/h (3 Bft) 100,00 %
17.02.2026 07:38 4,2 °C 3,9 °C 0,6 °C 98 % 1004,5 hPa 0,0 l/m² 0 min 0 min 0 W/m² 12,9 km/h (3 Bft) 100,00 %
17.02.2026 07:40 4,2 °C 3,9 °C 0,6 °C 98 % 1004,5 hPa 0,0 l/m² 0 min 0 min 0 W/m² 6,4 km/h (2 Bft) 100,00 %
17.02.2026 07:42 4,2 °C 3,9 °C 0,6 °C 98 % 1004,5 hPa 0,0 l/m² 0 min 0 min 0 W/m² 12,9 km/h (3 Bft) 97,83 %
17.02.2026 07:44 4,2 °C 3,9 °C 0,6 °C 98 % 1004,5 hPa 0,0 l/m² 0 min 0 min 0 W/m² 12,9 km/h (3 Bft) 100,00 %
17.02.2026 07:46 4,2 °C 3,9 °C 0,6 °C 98 % 1004,6 hPa 0,0 l/m² 0 min 0 min 0 W/m² 12,9 km/h (3 Bft) 100,00 %
17.02.2026 07:48 4,2 °C 3,9 °C 0,6 °C 98 % 1004,6 hPa 0,0 l/m² 0 min 0 min 0 W/m² 6,4 km/h (2 Bft) 97,87 %
17.02.2026 07:53 4,2 °C 3,9 °C 0,6 °C 98 % 1004,7 hPa 0,0 l/m² 0 min 0 min 1 W/m² 6,4 km/h (2 Bft) 100,00 %
17.02.2026 07:54 4,2 °C 3,9 °C 0,6 °C 98 % 1004,7 hPa 0,0 l/m² 0 min 0 min 5 W/m² 12,9 km/h (3 Bft) 100,00 %
17.02.2026 07:56 4,2 °C 3,9 °C 0,6 °C 98 % 1004,7 hPa 0,0 l/m² 0 min 0 min 6 W/m² 12,9 km/h (3 Bft) 100,00 %
17.02.2026 07:58 4,2 °C 3,9 °C 0,6 °C 98 % 1004,8 hPa 0,0 l/m² 0 min 0 min 7 W/m² 6,4 km/h (2 Bft) 97,87 %
17.02.2026 08:00 4,2 °C 3,9 °C 0,6 °C 98 % 1004,8 hPa 0,0 l/m² 0 min 0 min 8 W/m² 6,4 km/h (2 Bft) 97,87 %
17.02.2026 08:02 4,2 °C 3,9 °C 0,6 °C 98 % 1004,8 hPa 0,0 l/m² 0 min 0 min 7 W/m² 9,7 km/h (2 Bft) 100,00 %
17.02.2026 08:04 4,2 °C 3,9 °C 0,6 °C 98 % 1004,8 hPa 0,0 l/m² 0 min 0 min 8 W/m² 6,4 km/h (2 Bft) 95,74 %
17.02.2026 08:06 4,2 °C 3,9 °C 0,6 °C 99 % 1004,8 hPa 0,0 l/m² 0 min 0 min 10 W/m² 6,4 km/h (2 Bft) 100,00 %
17.02.2026 08:08 4,2 °C 3,9 °C 0,6 °C 99 % 1004,9 hPa 0,0 l/m² 0 min 0 min 11 W/m² 6,4 km/h (2 Bft) 97,87 %
17.02.2026 08:10 4,2 °C 3,9 °C 0,6 °C 99 % 1004,9 hPa 0,0 l/m² 0 min 0 min 10 W/m² 6,4 km/h (2 Bft) 97,14 %
17.02.2026 08:12 4,2 °C 3,9 °C 0,6 °C 99 % 1005,0 hPa 0,0 l/m² 0 min 0 min 6 W/m² 6,4 km/h (2 Bft) 100,00 %
17.02.2026 08:14 4,2 °C 3,9 °C 0,6 °C 99 % 1005,0 hPa 0,0 l/m² 0 min 0 min 5 W/m² 12,9 km/h (3 Bft) 97,87 %
17.02.2026 08:16 4,2 °C 3,9 °C 0,6 °C 99 % 1005,0 hPa 0,0 l/m² 0 min 0 min 5 W/m² 6,4 km/h (2 Bft) 100,00 %
17.02.2026 08:18 4,2 °C 3,9 °C 0,6 °C 99 % 1005,0 hPa 0,0 l/m² 0 min 0 min 5 W/m² 9,7 km/h (2 Bft) 100,00 %
17.02.2026 08:20 4,2 °C 3,9 °C 0,6 °C 99 % 1005,0 hPa 0,0 l/m² 0 min 0 min 7 W/m² 12,9 km/h (3 Bft) 100,00 %
17.02.2026 08:22 4,2 °C 3,9 °C 0,6 °C 99 % 1005,0 hPa 0,0 l/m² 0 min 0 min 9 W/m² 12,9 km/h (3 Bft) 100,00 %
17.02.2026 08:24 4,2 °C 3,9 °C 0,6 °C 99 % 1005,0 hPa 0,0 l/m² 0 min 0 min 10 W/m² 16,1 km/h (3 Bft) 100,00 %
17.02.2026 08:26 4,2 °C 3,9 °C 0,6 °C 99 % 1005,1 hPa 0,0 l/m² 0 min 0 min 11 W/m² 16,1 km/h (3 Bft) 100,00 %
17.02.2026 08:28 4,2 °C 3,9 °C 0,6 °C 99 % 1005,1 hPa 0,0 l/m² 0 min 0 min 11 W/m² 9,7 km/h (2 Bft) 100,00 %
17.02.2026 08:30 4,2 °C 3,9 °C 0,6 °C 99 % 1005,2 hPa 0,0 l/m² 0 min 0 min 9 W/m² 6,4 km/h (2 Bft) 100,00 %
17.02.2026 08:32 4,2 °C 3,9 °C 0,6 °C 99 % 1005,2 hPa 0,0 l/m² 0 min 0 min 10 W/m² 19,3 km/h (3 Bft) 100,00 %
17.02.2026 08:34 4,2 °C 3,9 °C 0,6 °C 99 % 1005,2 hPa 0,0 l/m² 0 min 0 min 13 W/m² 6,4 km/h (2 Bft) 100,00 %
17.02.2026 08:36 4,2 °C 3,9 °C 0,6 °C 99 % 1005,2 hPa 0,0 l/m² 0 min 0 min 18 W/m² 6,4 km/h (2 Bft) 100,00 %
17.02.2026 08:38 4,2 °C 3,9 °C 0,6 °C 98 % 1005,3 hPa 0,0 l/m² 0 min 0 min 23 W/m² 3,2 km/h (1 Bft) 100,00 %
17.02.2026 08:40 4,2 °C 3,9 °C 0,6 °C 99 % 1005,3 hPa 0,0 l/m² 0 min 0 min 25 W/m² 6,4 km/h (2 Bft) 100,00 %
17.02.2026 08:42 4,2 °C 3,9 °C 0,6 °C 98 % 1005,2 hPa 0,0 l/m² 0 min 0 min 24 W/m² 19,3 km/h (3 Bft) 100,00 %
17.02.2026 08:44 4,2 °C 3,9 °C 0,6 °C 98 % 1005,3 hPa 0,0 l/m² 0 min 0 min 23 W/m² 12,9 km/h (3 Bft) 97,87 %
17.02.2026 08:46 4,2 °C 3,9 °C 0,6 °C 98 % 1005,3 hPa 0,0 l/m² 0 min 0 min 23 W/m² 6,4 km/h (2 Bft) 100,00 %
17.02.2026 08:48 4,2 °C 3,9 °C 0,6 °C 98 % 1005,4 hPa 0,0 l/m² 0 min 0 min 24 W/m² 6,4 km/h (2 Bft) 95,74 %
17.02.2026 08:50 4,2 °C 3,9 °C 0,6 °C 98 % 1005,4 hPa 0,0 l/m² 0 min 0 min 20 W/m² 12,9 km/h (3 Bft) 97,87 %
17.02.2026 08:52 4,2 °C 3,9 °C 0,6 °C 98 % 1005,4 hPa 0,0 l/m² 0 min 0 min 17 W/m² 9,7 km/h (2 Bft) 95,74 %
17.02.2026 08:54 4,2 °C 3,9 °C 0,6 °C 98 % 1005,4 hPa 0,0 l/m² 0 min 0 min 15 W/m² 9,7 km/h (2 Bft) 97,87 %
17.02.2026 08:56 4,2 °C 3,9 °C 0,6 °C 98 % 1005,4 hPa 0,0 l/m² 0 min 0 min 19 W/m² 16,1 km/h (3 Bft) 97,87 %
17.02.2026 08:58 4,3 °C 3,9 °C 0,6 °C 98 % 1005,5 hPa 0,0 l/m² 0 min 0 min 20 W/m² 6,4 km/h (2 Bft) 95,65 %
17.02.2026 09:00 4,3 °C 3,9 °C 0,6 °C 98 % 1005,4 hPa 0,0 l/m² 0 min 0 min 19 W/m² 6,4 km/h (2 Bft) 97,87 %
17.02.2026 09:02 4,3 °C 3,9 °C 0,6 °C 98 % 1005,5 hPa 0,0 l/m² 0 min 0 min 19 W/m² 6,4 km/h (2 Bft) 92,00 %
17.02.2026 09:04 4,3 °C 3,9 °C 0,6 °C 98 % 1005,5 hPa 0,0 l/m² 0 min 0 min 18 W/m² 0,0 km/h (0 Bft) 95,92 %
17.02.2026 09:06 4,3 °C 3,9 °C 0,6 °C 98 % 1005,5 hPa 0,0 l/m² 0 min 0 min 16 W/m² 12,9 km/h (3 Bft) 93,62 %
17.02.2026 09:08 4,3 °C 3,9 °C 0,6 °C 98 % 1005,5 hPa 0,0 l/m² 0 min 0 min 14 W/m² 22,5 km/h (4 Bft) 91,49 %
17.02.2026 09:10 4,3 °C 3,9 °C 0,6 °C 98 % 1005,5 hPa 0,0 l/m² 0 min 0 min 15 W/m² 12,9 km/h (3 Bft) 93,62 %
17.02.2026 09:12 4,3 °C 3,9 °C 0,6 °C 98 % 1005,6 hPa 0,0 l/m² 0 min 0 min 16 W/m² 16,1 km/h (3 Bft) 91,49 %
17.02.2026 09:14 4,3 °C 3,9 °C 0,6 °C 98 % 1005,6 hPa 0,0 l/m² 0 min 0 min 17 W/m² 12,9 km/h (3 Bft) 93,62 %
17.02.2026 09:16 4,3 °C 3,9 °C 0,6 °C 98 % 1005,7 hPa 0,0 l/m² 0 min 0 min 19 W/m² 9,7 km/h (2 Bft) 93,62 %
17.02.2026 09:18 4,3 °C 3,9 °C 0,6 °C 98 % 1005,7 hPa 0,2 l/m² 0 min 0 min 24 W/m² 9,7 km/h (2 Bft) 93,62 %
17.02.2026 09:20 4,3 °C 3,9 °C 0,6 °C 98 % 1005,7 hPa 0,0 l/m² 0 min 0 min 25 W/m² 16,1 km/h (3 Bft) 95,74 %
17.02.2026 09:22 4,3 °C 3,9 °C 0,6 °C 98 % 1005,7 hPa 0,0 l/m² 0 min 0 min 23 W/m² 12,9 km/h (3 Bft) 95,65 %
17.02.2026 09:24 4,3 °C 3,9 °C 0,6 °C 98 % 1005,7 hPa 0,0 l/m² 0 min 0 min 22 W/m² 12,9 km/h (3 Bft) 95,74 %
17.02.2026 09:26 4,3 °C 3,9 °C 0,6 °C 98 % 1005,7 hPa 0,0 l/m² 0 min 0 min 25 W/m² 12,9 km/h (3 Bft) 95,74 %
17.02.2026 09:28 4,2 °C 3,9 °C 0,6 °C 98 % 1005,8 hPa 0,0 l/m² 0 min 0 min 22 W/m² 6,4 km/h (2 Bft) 93,62 %
17.02.2026 09:30 4,2 °C 3,9 °C 0,6 °C 98 % 1005,8 hPa 0,0 l/m² 0 min 0 min 23 W/m² 12,9 km/h (3 Bft) 93,62 %
17.02.2026 09:32 4,2 °C 3,9 °C 0,6 °C 98 % 1005,8 hPa 0,0 l/m² 0 min 0 min 34 W/m² 6,4 km/h (2 Bft) 95,74 %
17.02.2026 09:34 4,2 °C 3,9 °C 0,6 °C 98 % 1005,8 hPa 0,0 l/m² 0 min 0 min 41 W/m² 6,4 km/h (2 Bft) 95,74 %
17.02.2026 09:36 4,3 °C 3,9 °C 0,6 °C 98 % 1005,8 hPa 0,0 l/m² 0 min 0 min 42 W/m² 19,3 km/h (3 Bft) 93,62 %
17.02.2026 09:38 4,3 °C 3,9 °C 0,6 °C 98 % 1005,9 hPa 0,0 l/m² 0 min 0 min 39 W/m² 12,9 km/h (3 Bft) 91,49 %
17.02.2026 09:40 4,3 °C 3,9 °C 0,6 °C 98 % 1005,9 hPa 0,0 l/m² 0 min 0 min 32 W/m² 16,1 km/h (3 Bft) 95,74 %
17.02.2026 09:42 4,3 °C 3,9 °C 0,6 °C 98 % 1006,0 hPa 0,0 l/m² 0 min 0 min 26 W/m² 19,3 km/h (3 Bft) 93,62 %
17.02.2026 09:44 4,2 °C 3,9 °C 0,6 °C 98 % 1006,0 hPa 0,0 l/m² 0 min 0 min 20 W/m² 16,1 km/h (3 Bft) 95,74 %
17.02.2026 09:46 4,2 °C 3,9 °C 0,6 °C 98 % 1006,0 hPa 0,0 l/m² 0 min 0 min 19 W/m² 16,1 km/h (3 Bft) 95,74 %
17.02.2026 09:48 4,2 °C 3,9 °C 0,6 °C 98 % 1006,0 hPa 0,0 l/m² 0 min 0 min 20 W/m² 12,9 km/h (3 Bft) 97,83 %
17.02.2026 09:50 4,1 °C 3,9 °C 0,6 °C 98 % 1006,0 hPa 0,0 l/m² 0 min 0 min 25 W/m² 6,4 km/h (2 Bft) 93,62 %
17.02.2026 09:52 4,1 °C 3,9 °C 0,6 °C 98 % 1006,0 hPa 0,0 l/m² 0 min 0 min 31 W/m² 19,3 km/h (3 Bft) 95,74 %
17.02.2026 09:54 4,1 °C 3,9 °C 0,6 °C 98 % 1006,0 hPa 0,0 l/m² 0 min 0 min 39 W/m² 16,1 km/h (3 Bft) 100,00 %
17.02.2026 09:56 4,1 °C 3,9 °C 0,6 °C 98 % 1006,1 hPa 0,0 l/m² 0 min 0 min 44 W/m² 6,4 km/h (2 Bft) 100,00 %
17.02.2026 09:58 4,1 °C 3,9 °C 0,6 °C 98 % 1006,1 hPa 0,0 l/m² 0 min 0 min 46 W/m² 12,9 km/h (3 Bft) 100,00 %
17.02.2026 10:00 4,1 °C 3,9 °C 0,6 °C 98 % 1006,0 hPa 0,0 l/m² 0 min 0 min 45 W/m² 9,7 km/h (2 Bft) 100,00 %
17.02.2026 10:02 4,1 °C 3,9 °C 0,6 °C 98 % 1006,1 hPa 0,0 l/m² 0 min 0 min 33 W/m² 9,7 km/h (2 Bft) 97,87 %
17.02.2026 10:04 4,1 °C 3,9 °C 0,6 °C 98 % 1006,1 hPa 0,0 l/m² 0 min 0 min 30 W/m² 9,7 km/h (2 Bft) 100,00 %
17.02.2026 10:06 4,1 °C 3,9 °C 0,6 °C 98 % 1006,2 hPa 0,0 l/m² 0 min 0 min 32 W/m² 12,9 km/h (3 Bft) 97,83 %
17.02.2026 10:08 4,1 °C 3,9 °C 0,6 °C 98 % 1006,2 hPa 0,0 l/m² 0 min 0 min 32 W/m² 12,9 km/h (3 Bft) 100,00 %
17.02.2026 10:10 4,1 °C 3,9 °C 0,6 °C 98 % 1006,3 hPa 0,0 l/m² 0 min 0 min 31 W/m² 6,4 km/h (2 Bft) 97,14 %
17.02.2026 10:12 4,2 °C 3,9 °C 0,6 °C 98 % 1006,3 hPa 0,0 l/m² 0 min 0 min 33 W/m² 6,4 km/h (2 Bft) 100,00 %
17.02.2026 10:14 4,2 °C 3,9 °C 0,6 °C 98 % 1006,3 hPa 0,0 l/m² 0 min 0 min 42 W/m² 6,4 km/h (2 Bft) 100,00 %
17.02.2026 10:16 4,2 °C 3,9 °C 0,6 °C 98 % 1006,4 hPa 0,2 l/m² 0 min 0 min 49 W/m² 6,4 km/h (2 Bft) 100,00 %
17.02.2026 10:18 4,2 °C 3,9 °C 0,6 °C 98 % 1006,4 hPa 0,0 l/m² 0 min 0 min 63 W/m² 6,4 km/h (2 Bft) 100,00 %
17.02.2026 10:20 4,2 °C 3,9 °C 0,6 °C 98 % 1006,4 hPa 0,0 l/m² 0 min 0 min 64 W/m² 6,4 km/h (2 Bft) 100,00 %
17.02.2026 10:22 4,3 °C 3,9 °C 0,6 °C 98 % 1006,4 hPa 0,0 l/m² 0 min 0 min 63 W/m² 3,2 km/h (1 Bft) 97,87 %
17.02.2026 10:24 4,3 °C 3,9 °C 0,6 °C 98 % 1006,5 hPa 0,0 l/m² 0 min 0 min 72 W/m² 9,7 km/h (2 Bft) 100,00 %
17.02.2026 10:26 4,3 °C 4,4 °C 1,1 °C 98 % 1006,6 hPa 0,0 l/m² 0 min 0 min 82 W/m² 3,2 km/h (1 Bft) 100,00 %
17.02.2026 10:28 4,3 °C 4,4 °C 1,1 °C 98 % 1006,5 hPa 0,0 l/m² 0 min 0 min 101 W/m² 12,9 km/h (3 Bft) 100,00 %
17.02.2026 10:30 4,4 °C 4,4 °C 1,1 °C 98 % 1006,6 hPa 0,0 l/m² 0 min 0 min 118 W/m² 12,9 km/h (3 Bft) 100,00 %
17.02.2026 10:32 4,4 °C 4,4 °C 1,1 °C 98 % 1006,6 hPa 0,0 l/m² 0 min 0 min 123 W/m² 9,7 km/h (2 Bft) 100,00 %
17.02.2026 10:34 4,5 °C 4,4 °C 1,1 °C 98 % 1006,6 hPa 0,0 l/m² 0 min 0 min 113 W/m² 6,4 km/h (2 Bft) 97,87 %
17.02.2026 10:36 4,6 °C 4,4 °C 1,1 °C 98 % 1006,7 hPa 0,0 l/m² 0 min 0 min 85 W/m² 16,1 km/h (3 Bft) 100,00 %
17.02.2026 10:38 4,6 °C 4,4 °C 1,1 °C 98 % 1006,7 hPa 0,0 l/m² 0 min 0 min 72 W/m² 19,3 km/h (3 Bft) 100,00 %
17.02.2026 10:40 4,6 °C 4,4 °C 1,1 °C 98 % 1006,7 hPa 0,0 l/m² 0 min 0 min 81 W/m² 22,5 km/h (4 Bft) 100,00 %
17.02.2026 10:42 4,6 °C 4,4 °C 1,1 °C 98 % 1006,8 hPa 0,0 l/m² 0 min 0 min 80 W/m² 12,9 km/h (3 Bft) 97,87 %
17.02.2026 10:44 4,7 °C 5,0 °C 1,1 °C 98 % 1006,7 hPa 0,0 l/m² 0 min 0 min 83 W/m² 12,9 km/h (3 Bft) 95,74 %
17.02.2026 10:46 4,8 °C 5,0 °C 1,1 °C 98 % 1006,8 hPa 0,0 l/m² 0 min 0 min 86 W/m² 16,1 km/h (3 Bft) 93,62 %
17.02.2026 10:48 4,8 °C 5,0 °C 1,1 °C 98 % 1006,8 hPa 0,0 l/m² 0 min 0 min 93 W/m² 16,1 km/h (3 Bft) 97,87 %
17.02.2026 10:50 4,9 °C 5,0 °C 1,1 °C 98 % 1006,8 hPa 0,0 l/m² 0 min 0 min 104 W/m² 16,1 km/h (3 Bft) 97,87 %
17.02.2026 10:52 4,8 °C 5,0 °C 1,1 °C 98 % 1006,8 hPa 0,0 l/m² 0 min 0 min 100 W/m² 19,3 km/h (3 Bft) 97,87 %
17.02.2026 10:54 4,9 °C 5,0 °C 1,1 °C 98 % 1006,8 hPa 0,0 l/m² 0 min 0 min 103 W/m² 19,3 km/h (3 Bft) 97,92 %
17.02.2026 10:56 4,9 °C 5,0 °C 1,1 °C 98 % 1006,9 hPa 0,0 l/m² 0 min 0 min 88 W/m² 22,5 km/h (4 Bft) 97,87 %
17.02.2026 10:58 4,9 °C 5,0 °C 1,1 °C 98 % 1007,0 hPa 0,0 l/m² 0 min 0 min 69 W/m² 16,1 km/h (3 Bft) 97,83 %
17.02.2026 11:00 4,9 °C 5,0 °C 1,1 °C 98 % 1007,0 hPa 0,0 l/m² 0 min 0 min 59 W/m² 19,3 km/h (3 Bft) 97,87 %
17.02.2026 11:02 4,9 °C 4,4 °C 1,1 °C 98 % 1007,1 hPa 0,0 l/m² 0 min 0 min 49 W/m² 16,1 km/h (3 Bft) 97,87 %
17.02.2026 11:04 4,9 °C 4,4 °C 1,1 °C 98 % 1007,1 hPa 0,0 l/m² 0 min 0 min 44 W/m² 12,9 km/h (3 Bft) 97,87 %
17.02.2026 11:06 4,9 °C 4,4 °C 1,1 °C 98 % 1007,2 hPa 0,0 l/m² 0 min 0 min 39 W/m² 19,3 km/h (3 Bft) 98,31 %
17.02.2026 11:08 4,8 °C 4,4 °C 1,1 °C 98 % 1007,3 hPa 0,0 l/m² 0 min 0 min 35 W/m² 19,3 km/h (3 Bft) 97,22 %
17.02.2026 11:10 4,8 °C 4,4 °C 1,1 °C 98 % 1007,3 hPa 0,2 l/m² 0 min 0 min 42 W/m² 9,7 km/h (2 Bft) 97,87 %
17.02.2026 11:12 4,8 °C 4,4 °C 1,1 °C 98 % 1007,3 hPa 0,0 l/m² 0 min 0 min 52 W/m² 12,9 km/h (3 Bft) 97,87 %
17.02.2026 11:14 4,8 °C 4,4 °C 1,1 °C 98 % 1007,4 hPa 0,5 l/m² 0 min 2 min 37 W/m² 16,1 km/h (3 Bft) 97,87 %
17.02.2026 11:16 4,8 °C 4,4 °C 1,1 °C 98 % 1007,5 hPa 0,0 l/m² 0 min 0 min 26 W/m² 16,1 km/h (3 Bft) 100,00 %
17.02.2026 11:18 4,8 °C 4,4 °C 1,1 °C 98 % 1007,5 hPa 0,2 l/m² 0 min 2 min 30 W/m² 29,0 km/h (5 Bft) 100,00 %
17.02.2026 11:20 4,7 °C 3,9 °C 1,1 °C 97 % 1007,6 hPa 0,0 l/m² 0 min 2 min 30 W/m² 22,5 km/h (4 Bft) 97,87 %
17.02.2026 11:22 4,6 °C 3,9 °C 0,6 °C 97 % 1007,7 hPa 0,2 l/m² 0 min 0 min 43 W/m² 19,3 km/h (3 Bft) 100,00 %
17.02.2026 11:24 4,5 °C 3,9 °C 0,6 °C 97 % 1007,7 hPa 0,0 l/m² 0 min 0 min 58 W/m² 25,7 km/h (4 Bft) 100,00 %
17.02.2026 11:26 4,4 °C 3,9 °C 0,6 °C 97 % 1007,7 hPa 0,0 l/m² 0 min 0 min 70 W/m² 22,5 km/h (4 Bft) 97,87 %
17.02.2026 11:28 4,4 °C 3,9 °C 0,6 °C 97 % 1007,8 hPa 0,0 l/m² 0 min 0 min 73 W/m² 16,1 km/h (3 Bft) 100,00 %
17.02.2026 11:30 4,4 °C 3,9 °C 0,6 °C 97 % 1007,8 hPa 0,2 l/m² 0 min 0 min 65 W/m² 22,5 km/h (4 Bft) 100,00 %
17.02.2026 11:32 4,3 °C 3,9 °C 0,6 °C 97 % 1007,8 hPa 0,0 l/m² 0 min 0 min 84 W/m² 12,9 km/h (3 Bft) 100,00 %
17.02.2026 11:34 4,3 °C 4,4 °C 1,1 °C 97 % 1007,9 hPa 0,0 l/m² 0 min 0 min 122 W/m² 32,2 km/h (5 Bft) 97,87 %
17.02.2026 11:36 4,4 °C 4,4 °C 1,1 °C 97 % 1007,9 hPa 0,0 l/m² 0 min 0 min 159 W/m² 19,3 km/h (3 Bft) 100,00 %
17.02.2026 11:38 4,4 °C 5,0 °C 1,1 °C 97 % 1007,9 hPa 0,0 l/m² 0 min 0 min 199 W/m² 16,1 km/h (3 Bft) 95,74 %
17.02.2026 11:40 4,3 °C 5,0 °C 1,1 °C 97 % 1008,0 hPa 0,0 l/m² 2 min 0 min 219 W/m² 25,7 km/h (4 Bft) 97,87 %
17.02.2026 11:42 4,3 °C 5,0 °C 1,1 °C 97 % 1008,0 hPa 0,2 l/m² 0 min 0 min 190 W/m² 19,3 km/h (3 Bft) 97,87 %
17.02.2026 11:44 4,3 °C 5,0 °C 1,1 °C 97 % 1008,0 hPa 0,0 l/m² 0 min 0 min 136 W/m² 12,9 km/h (3 Bft) 97,87 %
17.02.2026 11:46 4,3 °C 5,0 °C 1,1 °C 97 % 1008,1 hPa 0,0 l/m² 0 min 0 min 75 W/m² 9,7 km/h (2 Bft) 93,48 %
17.02.2026 11:48 4,3 °C 4,4 °C 0,6 °C 97 % 1008,1 hPa 0,0 l/m² 0 min 0 min 46 W/m² 12,9 km/h (3 Bft) 97,87 %
17.02.2026 11:50 4,3 °C 4,4 °C 0,6 °C 97 % 1008,1 hPa 0,0 l/m² 0 min 0 min 40 W/m² 9,7 km/h (2 Bft) 95,74 %
17.02.2026 11:52 4,3 °C 4,4 °C 0,6 °C 97 % 1008,1 hPa 0,0 l/m² 0 min 0 min 45 W/m² 6,4 km/h (2 Bft) 97,87 %
17.02.2026 11:54 4,2 °C 3,9 °C 0,6 °C 97 % 1008,1 hPa 0,0 l/m² 0 min 0 min 47 W/m² 9,7 km/h (2 Bft) 95,74 %
17.02.2026 11:56 4,2 °C 3,9 °C 0,6 °C 97 % 1008,2 hPa 0,0 l/m² 0 min 0 min 44 W/m² 6,4 km/h (2 Bft) 95,74 %
17.02.2026 11:58 4,2 °C 3,9 °C 0,6 °C 97 % 1008,2 hPa 0,0 l/m² 0 min 0 min 41 W/m² 6,4 km/h (2 Bft) 97,87 %
17.02.2026 12:00 4,2 °C 3,9 °C 0,6 °C 97 % 1008,2 hPa 0,0 l/m² 0 min 0 min 44 W/m² 6,4 km/h (2 Bft) 97,87 %
17.02.2026 12:02 4,2 °C 3,9 °C 0,6 °C 97 % 1008,2 hPa 0,0 l/m² 0 min 0 min 50 W/m² 6,4 km/h (2 Bft) 97,87 %
17.02.2026 12:04 4,2 °C 3,9 °C 0,6 °C 97 % 1008,2 hPa 0,0 l/m² 0 min 0 min 60 W/m² 9,7 km/h (2 Bft) 97,87 %
17.02.2026 12:07 4,2 °C 3,9 °C 0,6 °C 97 % 1008,2 hPa 0,0 l/m² 0 min 0 min 74 W/m² 3,2 km/h (1 Bft) 98,59 %
17.02.2026 12:08 4,2 °C 3,9 °C 0,6 °C 97 % 1008,2 hPa 0,0 l/m² 0 min 0 min 96 W/m² 9,7 km/h (2 Bft) 95,83 %
17.02.2026 12:12 4,3 °C 4,4 °C 1,1 °C 97 % 1008,2 hPa 0,0 l/m² 0 min 0 min 147 W/m² 6,4 km/h (2 Bft) 96,61 %
17.02.2026 12:14 4,3 °C 5,0 °C 1,1 °C 97 % 1008,2 hPa 0,0 l/m² 0 min 0 min 159 W/m² 6,4 km/h (2 Bft) 95,74 %
17.02.2026 12:16 4,3 °C 5,0 °C 1,1 °C 97 % 1008,3 hPa 0,0 l/m² 0 min 0 min 152 W/m² 3,2 km/h (1 Bft) 95,74 %
17.02.2026 12:18 4,4 °C 5,0 °C 1,1 °C 97 % 1008,3 hPa 0,0 l/m² 0 min 0 min 134 W/m² 9,7 km/h (2 Bft) 93,62 %
17.02.2026 12:20 4,4 °C 5,0 °C 1,1 °C 97 % 1008,3 hPa 0,0 l/m² 0 min 0 min 144 W/m² 12,9 km/h (3 Bft) 95,74 %
17.02.2026 12:22 4,6 °C 5,0 °C 1,1 °C 97 % 1008,3 hPa 0,0 l/m² 0 min 0 min 123 W/m² 12,9 km/h (3 Bft) 93,62 %
17.02.2026 12:24 4,6 °C 5,0 °C 1,1 °C 97 % 1008,3 hPa 0,0 l/m² 0 min 0 min 128 W/m² 12,9 km/h (3 Bft) 93,62 %
17.02.2026 12:26 4,6 °C 5,0 °C 1,1 °C 97 % 1008,3 hPa 0,0 l/m² 0 min 0 min 158 W/m² 16,1 km/h (3 Bft) 95,65 %
17.02.2026 12:28 4,7 °C 5,0 °C 1,1 °C 97 % 1008,4 hPa 0,0 l/m² 0 min 0 min 147 W/m² 12,9 km/h (3 Bft) 97,87 %
17.02.2026 12:30 4,7 °C 5,6 °C 1,1 °C 97 % 1008,4 hPa 0,0 l/m² 0 min 0 min 151 W/m² 6,4 km/h (2 Bft) 97,87 %
17.02.2026 12:32 4,8 °C 5,0 °C 1,1 °C 97 % 1008,4 hPa 0,0 l/m² 0 min 0 min 143 W/m² 16,1 km/h (3 Bft) 97,87 %
17.02.2026 12:34 4,8 °C 5,0 °C 1,1 °C 97 % 1008,4 hPa 0,0 l/m² 0 min 0 min 130 W/m² 16,1 km/h (3 Bft) 91,49 %
17.02.2026 12:36 4,9 °C 5,0 °C 1,1 °C 97 % 1008,4 hPa 0,0 l/m² 0 min 0 min 100 W/m² 16,1 km/h (3 Bft) 95,74 %
17.02.2026 12:38 4,9 °C 5,0 °C 1,1 °C 97 % 1008,4 hPa 0,0 l/m² 0 min 0 min 109 W/m² 12,9 km/h (3 Bft) 93,62 %
17.02.2026 12:40 4,9 °C 5,0 °C 1,1 °C 97 % 1008,5 hPa 0,0 l/m² 0 min 0 min 119 W/m² 16,1 km/h (3 Bft) 95,74 %
17.02.2026 12:42 4,9 °C 5,0 °C 1,1 °C 97 % 1008,5 hPa 0,0 l/m² 0 min 0 min 113 W/m² 12,9 km/h (3 Bft) 97,87 %
17.02.2026 12:44 5,0 °C 5,0 °C 1,1 °C 97 % 1008,5 hPa 0,0 l/m² 0 min 0 min 114 W/m² 12,9 km/h (3 Bft) 97,14 %
17.02.2026 12:46 5,0 °C 5,0 °C 1,1 °C 97 % 1008,5 hPa 0,0 l/m² 0 min 0 min 129 W/m² 12,9 km/h (3 Bft) 95,74 %
17.02.2026 12:48 5,0 °C 5,6 °C 1,7 °C 97 % 1008,5 hPa 0,0 l/m² 0 min 0 min 158 W/m² 12,9 km/h (3 Bft) 95,74 %
17.02.2026 12:50 5,1 °C 5,6 °C 1,7 °C 97 % 1008,5 hPa 0,0 l/m² 0 min 0 min 184 W/m² 12,9 km/h (3 Bft) 93,62 %
17.02.2026 12:52 5,1 °C 5,6 °C 1,7 °C 97 % 1008,5 hPa 0,0 l/m² 0 min 0 min 188 W/m² 12,9 km/h (3 Bft) 95,74 %
17.02.2026 12:54 5,1 °C 5,6 °C 1,7 °C 97 % 1008,6 hPa 0,0 l/m² 0 min 0 min 174 W/m² 12,9 km/h (3 Bft) 95,74 %
17.02.2026 12:56 5,2 °C 5,6 °C 1,7 °C 97 % 1008,7 hPa 0,0 l/m² 0 min 0 min 161 W/m² 16,1 km/h (3 Bft) 95,65 %
17.02.2026 12:58 5,2 °C 5,6 °C 1,7 °C 97 % 1008,6 hPa 0,0 l/m² 0 min 0 min 142 W/m² 19,3 km/h (3 Bft) 93,75 %
17.02.2026 13:00 5,2 °C 5,6 °C 1,7 °C 97 % 1008,7 hPa 0,0 l/m² 0 min 0 min 128 W/m² 9,7 km/h (2 Bft) 95,74 %
17.02.2026 13:02 5,2 °C 5,6 °C 1,1 °C 97 % 1008,7 hPa 0,0 l/m² 0 min 0 min 122 W/m² 16,1 km/h (3 Bft) 93,62 %
17.02.2026 13:04 5,2 °C 5,6 °C 1,1 °C 97 % 1008,7 hPa 0,0 l/m² 0 min 0 min 87 W/m² 16,1 km/h (3 Bft) 95,65 %
17.02.2026 13:06 5,1 °C 5,0 °C 1,1 °C 96 % 1008,8 hPa 0,0 l/m² 0 min 0 min 76 W/m² 12,9 km/h (3 Bft) 100,00 %
17.02.2026 13:08 5,1 °C 5,0 °C 1,1 °C 96 % 1008,8 hPa 0,0 l/m² 0 min 0 min 111 W/m² 25,7 km/h (4 Bft) 100,00 %
17.02.2026 13:10 5,1 °C 5,6 °C 1,1 °C 96 % 1008,8 hPa 0,0 l/m² 0 min 0 min 129 W/m² 12,9 km/h (3 Bft) 97,14 %
17.02.2026 13:12 5,2 °C 7,2 °C 1,7 °C 96 % 1008,8 hPa 0,0 l/m² 0 min 0 min 175 W/m² 9,7 km/h (2 Bft) 100,00 %
17.02.2026 13:14 5,3 °C 7,8 °C 1,7 °C 96 % 1008,8 hPa 0,0 l/m² 2 min 0 min 245 W/m² 22,5 km/h (4 Bft) 100,00 %
17.02.2026 13:16 5,3 °C 7,2 °C 1,7 °C 96 % 1008,8 hPa 0,0 l/m² 2 min 0 min 253 W/m² 19,3 km/h (3 Bft) 97,87 %
17.02.2026 13:18 5,4 °C 6,7 °C 1,7 °C 96 % 1008,8 hPa 0,0 l/m² 0 min 0 min 185 W/m² 16,1 km/h (3 Bft) 100,00 %
17.02.2026 13:20 5,4 °C 6,1 °C 1,7 °C 96 % 1008,9 hPa 0,0 l/m² 0 min 0 min 143 W/m² 16,1 km/h (3 Bft) 100,00 %
17.02.2026 13:22 5,4 °C 6,1 °C 1,7 °C 96 % 1008,9 hPa 0,0 l/m² 0 min 0 min 159 W/m² 19,3 km/h (3 Bft) 100,00 %
17.02.2026 13:24 5,4 °C 6,7 °C 1,7 °C 96 % 1008,9 hPa 0,0 l/m² 0 min 0 min 195 W/m² 16,1 km/h (3 Bft) 100,00 %
17.02.2026 13:26 5,4 °C 6,1 °C 1,7 °C 95 % 1008,9 hPa 0,0 l/m² 0 min 0 min 134 W/m² 29,0 km/h (5 Bft) 100,00 %
17.02.2026 13:28 5,4 °C 6,1 °C 1,7 °C 95 % 1008,9 hPa 0,0 l/m² 0 min 0 min 148 W/m² 12,9 km/h (3 Bft) 100,00 %
17.02.2026 13:30 5,4 °C 7,2 °C 1,7 °C 95 % 1008,9 hPa 0,0 l/m² 2 min 0 min 269 W/m² 19,3 km/h (3 Bft) 100,00 %
17.02.2026 13:32 5,6 °C 7,2 °C 1,7 °C 95 % 1009,0 hPa 0,0 l/m² 2 min 0 min 281 W/m² 12,9 km/h (3 Bft) 100,00 %
17.02.2026 13:34 5,6 °C 6,7 °C 1,7 °C 95 % 1008,9 hPa 0,0 l/m² 0 min 0 min 154 W/m² 12,9 km/h (3 Bft) 100,00 %
17.02.2026 13:36 5,6 °C 6,1 °C 1,7 °C 95 % 1008,9 hPa 0,0 l/m² 0 min 0 min 143 W/m² 19,3 km/h (3 Bft) 100,00 %
17.02.2026 13:38 5,6 °C 7,2 °C 1,7 °C 94 % 1008,9 hPa 0,0 l/m² 0 min 0 min 196 W/m² 22,5 km/h (4 Bft) 100,00 %
17.02.2026 13:40 5,7 °C 8,9 °C 1,7 °C 94 % 1008,8 hPa 0,0 l/m² 2 min 0 min 232 W/m² 12,9 km/h (3 Bft) 100,00 %
17.02.2026 13:42 5,8 °C 8,9 °C 1,7 °C 94 % 1008,9 hPa 0,0 l/m² 2 min 0 min 243 W/m² 16,1 km/h (3 Bft) 100,00 %
17.02.2026 13:44 5,8 °C 7,8 °C 1,7 °C 94 % 1008,8 hPa 0,0 l/m² 0 min 0 min 147 W/m² 12,9 km/h (3 Bft) 100,00 %
17.02.2026 13:46 5,9 °C 6,7 °C 1,7 °C 94 % 1008,9 hPa 0,0 l/m² 0 min 0 min 106 W/m² 12,9 km/h (3 Bft) 100,00 %
17.02.2026 13:48 5,9 °C 6,1 °C 1,7 °C 94 % 1008,9 hPa 0,0 l/m² 0 min 0 min 98 W/m² 12,9 km/h (3 Bft) 100,00 %
17.02.2026 13:50 5,8 °C 5,6 °C 1,7 °C 93 % 1008,9 hPa 0,0 l/m² 0 min 0 min 91 W/m² 22,5 km/h (4 Bft) 100,00 %
17.02.2026 13:52 5,8 °C 5,6 °C 1,1 °C 93 % 1009,0 hPa 0,0 l/m² 0 min 0 min 45 W/m² 19,3 km/h (3 Bft) 100,00 %
17.02.2026 13:54 5,7 °C 5,0 °C 1,1 °C 93 % 1009,0 hPa 0,0 l/m² 0 min 0 min 36 W/m² 16,1 km/h (3 Bft) 97,87 %
17.02.2026 13:56 5,6 °C 5,0 °C 1,1 °C 93 % 1009,0 hPa 0,0 l/m² 0 min 0 min 69 W/m² 12,9 km/h (3 Bft) 100,00 %
17.02.2026 13:58 5,6 °C 5,0 °C 1,1 °C 93 % 1009,1 hPa 0,0 l/m² 0 min 0 min 87 W/m² 22,5 km/h (4 Bft) 100,00 %
17.02.2026 14:00 5,6 °C 5,0 °C 1,1 °C 93 % 1009,1 hPa 0,0 l/m² 0 min 0 min 47 W/m² 16,1 km/h (3 Bft) 95,74 %
17.02.2026 14:02 5,5 °C 5,0 °C 1,1 °C 92 % 1009,1 hPa 0,0 l/m² 0 min 0 min 56 W/m² 22,5 km/h (4 Bft) 100,00 %
17.02.2026 14:04 5,4 °C 5,0 °C 1,1 °C 92 % 1009,1 hPa 0,0 l/m² 0 min 0 min 82 W/m² 25,7 km/h (4 Bft) 100,00 %
17.02.2026 14:06 5,3 °C 6,7 °C 1,1 °C 93 % 1009,2 hPa 0,2 l/m² 0 min 0 min 164 W/m² 16,1 km/h (3 Bft) 97,87 %
17.02.2026 14:08 5,4 °C 8,9 °C 1,1 °C 93 % 1009,2 hPa 0,0 l/m² 2 min 0 min 438 W/m² 16,1 km/h (3 Bft) 100,00 %
17.02.2026 14:10 5,6 °C 10,0 °C 1,7 °C 94 % 1009,2 hPa 0,0 l/m² 2 min 0 min 440 W/m² 16,1 km/h (3 Bft) 95,65 %
17.02.2026 14:12 5,8 °C 11,1 °C 1,7 °C 94 % 1009,2 hPa 0,0 l/m² 2 min 0 min 473 W/m² 12,9 km/h (3 Bft) 100,00 %
17.02.2026 14:14 5,9 °C 10,6 °C 1,7 °C 94 % 1009,2 hPa 0,0 l/m² 2 min 0 min 371 W/m² 19,3 km/h (3 Bft) 100,00 %
17.02.2026 14:16 6,0 °C 10,0 °C 1,7 °C 94 % 1009,2 hPa 0,0 l/m² 2 min 0 min 331 W/m² 12,9 km/h (3 Bft) 97,87 %
17.02.2026 14:18 6,1 °C 9,4 °C 1,7 °C 94 % 1009,2 hPa 0,0 l/m² 2 min 0 min 316 W/m² 16,1 km/h (3 Bft) 100,00 %
17.02.2026 14:20 6,2 °C 9,4 °C 1,7 °C 94 % 1009,3 hPa 0,0 l/m² 2 min 0 min 270 W/m² 12,9 km/h (3 Bft) 97,87 %
17.02.2026 14:22 6,2 °C 9,4 °C 1,7 °C 94 % 1009,2 hPa 0,0 l/m² 2 min 0 min 283 W/m² 22,5 km/h (4 Bft) 100,00 %
17.02.2026 14:24 6,3 °C 10,6 °C 1,7 °C 94 % 1009,2 hPa 0,0 l/m² 2 min 0 min 514 W/m² 16,1 km/h (3 Bft) 100,00 %
17.02.2026 14:26 6,3 °C 10,0 °C 1,7 °C 93 % 1009,2 hPa 0,0 l/m² 2 min 0 min 466 W/m² 19,3 km/h (3 Bft) 97,87 %
17.02.2026 14:28 6,4 °C 10,0 °C 1,7 °C 93 % 1009,1 hPa 0,0 l/m² 2 min 0 min 457 W/m² 29,0 km/h (5 Bft) 93,62 %
17.02.2026 14:30 6,5 °C 10,0 °C 1,7 °C 93 % 1009,1 hPa 0,0 l/m² 2 min 0 min 365 W/m² 19,3 km/h (3 Bft) 95,74 %
17.02.2026 14:32 6,5 °C 8,3 °C 1,7 °C 93 % 1009,1 hPa 0,0 l/m² 0 min 0 min 138 W/m² 16,1 km/h (3 Bft) 95,74 %
17.02.2026 14:34 6,5 °C 7,2 °C 1,7 °C 92 % 1009,1 hPa 0,0 l/m² 0 min 0 min 116 W/m² 12,9 km/h (3 Bft) 93,48 %
17.02.2026 14:36 6,4 °C 6,7 °C 1,7 °C 92 % 1009,1 hPa 0,0 l/m² 0 min 0 min 82 W/m² 19,3 km/h (3 Bft) 93,62 %
17.02.2026 14:38 6,3 °C 6,1 °C 1,7 °C 91 % 1009,1 hPa 0,0 l/m² 0 min 0 min 63 W/m² 16,1 km/h (3 Bft) 95,74 %
17.02.2026 14:40 6,3 °C 6,1 °C 1,7 °C 91 % 1009,1 hPa 0,0 l/m² 0 min 0 min 60 W/m² 16,1 km/h (3 Bft) 91,49 %
17.02.2026 14:42 6,2 °C 6,1 °C 1,7 °C 91 % 1009,1 hPa 0,0 l/m² 0 min 0 min 82 W/m² 12,9 km/h (3 Bft) 95,74 %
17.02.2026 14:44 6,2 °C 6,1 °C 1,7 °C 91 % 1009,1 hPa 0,0 l/m² 0 min 0 min 89 W/m² 16,1 km/h (3 Bft) 95,74 %
17.02.2026 14:46 6,1 °C 6,7 °C 1,7 °C 91 % 1009,1 hPa 0,0 l/m² 0 min 0 min 91 W/m² 16,1 km/h (3 Bft) 93,62 %
17.02.2026 14:48 6,1 °C 6,1 °C 1,7 °C 91 % 1009,1 hPa 0,0 l/m² 0 min 0 min 83 W/m² 9,7 km/h (2 Bft) 95,74 %
17.02.2026 14:50 6,1 °C 6,7 °C 1,1 °C 91 % 1009,1 hPa 0,0 l/m² 0 min 0 min 142 W/m² 12,9 km/h (3 Bft) 93,62 %
17.02.2026 14:52 6,1 °C 7,8 °C 1,1 °C 91 % 1009,2 hPa 0,0 l/m² 2 min 0 min 203 W/m² 19,3 km/h (3 Bft) 95,74 %
17.02.2026 14:54 6,1 °C 9,4 °C 1,7 °C 91 % 1009,2 hPa 0,0 l/m² 2 min 0 min 234 W/m² 25,7 km/h (4 Bft) 95,74 %
17.02.2026 14:56 6,2 °C 10,6 °C 1,7 °C 92 % 1009,2 hPa 0,0 l/m² 2 min 0 min 494 W/m² 16,1 km/h (3 Bft) 93,48 %
17.02.2026 14:58 6,3 °C 10,6 °C 1,7 °C 92 % 1009,3 hPa 0,0 l/m² 2 min 0 min 368 W/m² 22,5 km/h (4 Bft) 91,49 %
17.02.2026 15:00 6,4 °C 10,6 °C 1,7 °C 91 % 1009,3 hPa 0,0 l/m² 2 min 0 min 497 W/m² 22,5 km/h (4 Bft) 95,74 %
17.02.2026 15:02 6,5 °C 9,4 °C 1,7 °C 91 % 1009,3 hPa 0,0 l/m² 2 min 0 min 280 W/m² 19,3 km/h (3 Bft) 95,74 %
17.02.2026 15:04 6,6 °C 7,8 °C 1,7 °C 91 % 1009,4 hPa 0,0 l/m² 0 min 0 min 117 W/m² 12,9 km/h (3 Bft) 91,49 %
17.02.2026 15:06 6,5 °C 6,7 °C 1,7 °C 91 % 1009,5 hPa 0,0 l/m² 0 min 0 min 55 W/m² 16,1 km/h (3 Bft) 97,87 %
17.02.2026 15:08 6,4 °C 6,1 °C 1,1 °C 90 % 1009,5 hPa 0,0 l/m² 0 min 0 min 30 W/m² 25,7 km/h (4 Bft) 97,92 %
17.02.2026 15:10 6,3 °C 5,6 °C 1,1 °C 90 % 1009,6 hPa 0,0 l/m² 0 min 0 min 27 W/m² 16,1 km/h (3 Bft) 93,62 %
17.02.2026 15:12 6,2 °C 5,6 °C 1,1 °C 90 % 1009,5 hPa 0,0 l/m² 0 min 0 min 40 W/m² 19,3 km/h (3 Bft) 95,74 %
17.02.2026 15:14 6,1 °C 5,0 °C 1,1 °C 90 % 1009,5 hPa 0,0 l/m² 0 min 0 min 51 W/m² 19,3 km/h (3 Bft) 97,87 %
17.02.2026 15:16 5,9 °C 5,0 °C 1,1 °C 91 % 1009,5 hPa 0,0 l/m² 0 min 0 min 78 W/m² 16,1 km/h (3 Bft) 95,74 %
17.02.2026 15:18 5,8 °C 6,7 °C 1,1 °C 91 % 1009,5 hPa 0,0 l/m² 0 min 0 min 136 W/m² 19,3 km/h (3 Bft) 97,87 %
17.02.2026 15:20 5,8 °C 8,3 °C 1,1 °C 91 % 1009,5 hPa 0,0 l/m² 2 min 0 min 370 W/m² 16,1 km/h (3 Bft) 95,74 %
17.02.2026 15:22 5,8 °C 8,9 °C 1,1 °C 92 % 1009,6 hPa 0,0 l/m² 2 min 0 min 331 W/m² 22,5 km/h (4 Bft) 95,65 %
17.02.2026 15:24 5,9 °C 9,4 °C 1,1 °C 92 % 1009,5 hPa 0,0 l/m² 2 min 0 min 305 W/m² 19,3 km/h (3 Bft) 93,62 %
17.02.2026 15:26 6,0 °C 9,4 °C 1,1 °C 92 % 1009,5 hPa 0,0 l/m² 2 min 0 min 295 W/m² 12,9 km/h (3 Bft) 97,14 %
17.02.2026 15:28 6,1 °C 10,0 °C 1,1 °C 92 % 1009,5 hPa 0,0 l/m² 2 min 0 min 289 W/m² 16,1 km/h (3 Bft) 93,62 %
17.02.2026 15:30 6,1 °C 10,0 °C 1,1 °C 92 % 1009,6 hPa 0,0 l/m² 2 min 0 min 286 W/m² 12,9 km/h (3 Bft) 97,87 %
17.02.2026 15:32 6,2 °C 9,4 °C 1,1 °C 91 % 1009,6 hPa 0,0 l/m² 2 min 0 min 284 W/m² 16,1 km/h (3 Bft) 95,83 %
17.02.2026 15:34 6,2 °C 10,0 °C 1,1 °C 91 % 1009,7 hPa 0,0 l/m² 2 min 0 min 282 W/m² 12,9 km/h (3 Bft) 97,87 %
17.02.2026 15:36 6,2 °C 10,0 °C 1,1 °C 91 % 1009,7 hPa 0,0 l/m² 2 min 0 min 278 W/m² 16,1 km/h (3 Bft) 97,87 %
17.02.2026 15:38 6,3 °C 8,9 °C 1,7 °C 90 % 1009,7 hPa 0,0 l/m² 2 min 0 min 284 W/m² 16,1 km/h (3 Bft) 95,74 %
17.02.2026 15:40 6,3 °C 7,8 °C 1,7 °C 90 % 1009,7 hPa 0,0 l/m² 2 min 0 min 201 W/m² 16,1 km/h (3 Bft) 97,87 %
17.02.2026 15:42 6,3 °C 7,2 °C 1,7 °C 90 % 1009,7 hPa 0,0 l/m² 2 min 0 min 152 W/m² 22,5 km/h (4 Bft) 97,87 %
17.02.2026 15:44 6,2 °C 6,7 °C 1,7 °C 89 % 1009,7 hPa 0,0 l/m² 2 min 0 min 187 W/m² 16,1 km/h (3 Bft) 95,74 %
17.02.2026 15:46 6,2 °C 6,7 °C 1,7 °C 89 % 1009,7 hPa 0,0 l/m² 2 min 0 min 157 W/m² 12,9 km/h (3 Bft) 97,83 %
17.02.2026 15:48 6,2 °C 6,7 °C 1,7 °C 90 % 1009,7 hPa 0,0 l/m² 0 min 0 min 128 W/m² 22,5 km/h (4 Bft) 95,74 %
17.02.2026 15:50 6,1 °C 6,1 °C 1,7 °C 89 % 1009,7 hPa 0,0 l/m² 0 min 0 min 117 W/m² 19,3 km/h (3 Bft) 97,87 %
17.02.2026 15:52 6,1 °C 6,1 °C 1,7 °C 89 % 1009,7 hPa 0,0 l/m² 0 min 0 min 121 W/m² 16,1 km/h (3 Bft) 95,74 %
17.02.2026 15:54 6,2 °C 6,1 °C 2,2 °C 90 % 1009,7 hPa 0,0 l/m² 2 min 0 min 214 W/m² 16,1 km/h (3 Bft) 95,74 %
17.02.2026 15:56 6,2 °C 6,1 °C 2,2 °C 90 % 1009,6 hPa 0,0 l/m² 2 min 0 min 186 W/m² 19,3 km/h (3 Bft) 97,87 %
17.02.2026 15:58 6,2 °C 6,7 °C 2,2 °C 90 % 1009,7 hPa 0,0 l/m² 2 min 0 min 178 W/m² 19,3 km/h (3 Bft) 95,74 %
17.02.2026 16:00 6,2 °C 6,7 °C 2,2 °C 90 % 1009,7 hPa 0,0 l/m² 2 min 0 min 242 W/m² 16,1 km/h (3 Bft) 97,87 %
17.02.2026 16:02 6,3 °C 6,7 °C 2,2 °C 90 % 1009,7 hPa 0,0 l/m² 2 min 0 min 284 W/m² 12,9 km/h (3 Bft) 97,87 %
17.02.2026 16:04 6,3 °C 7,2 °C 2,8 °C 90 % 1009,6 hPa 0,0 l/m² 2 min 0 min 316 W/m² 12,9 km/h (3 Bft) 97,87 %
17.02.2026 16:06 6,4 °C 7,2 °C 2,8 °C 90 % 1009,7 hPa 0,0 l/m² 2 min 0 min 214 W/m² 22,5 km/h (4 Bft) 98,28 %
17.02.2026 16:08 6,5 °C 6,7 °C 2,8 °C 90 % 1009,7 hPa 0,0 l/m² 2 min 0 min 148 W/m² 19,3 km/h (3 Bft) 97,22 %
17.02.2026 16:10 6,5 °C 6,7 °C 2,8 °C 90 % 1009,8 hPa 0,0 l/m² 2 min 0 min 275 W/m² 29,0 km/h (5 Bft) 95,74 %
17.02.2026 16:12 6,5 °C 6,7 °C 2,2 °C 90 % 1009,7 hPa 0,0 l/m² 2 min 0 min 196 W/m² 35,4 km/h (5 Bft) 95,65 %
17.02.2026 16:14 6,4 °C 6,7 °C 2,2 °C 89 % 1009,7 hPa 0,0 l/m² 2 min 0 min 194 W/m² 29,0 km/h (5 Bft) 100,00 %
17.02.2026 16:16 6,4 °C 6,7 °C 2,2 °C 88 % 1009,9 hPa 0,0 l/m² 2 min 0 min 201 W/m² 29,0 km/h (5 Bft) 100,00 %
17.02.2026 16:18 6,4 °C 6,7 °C 2,2 °C 88 % 1009,8 hPa 0,0 l/m² 2 min 0 min 261 W/m² 29,0 km/h (5 Bft) 100,00 %
17.02.2026 16:20 6,4 °C 6,7 °C 2,2 °C 88 % 1010,0 hPa 0,0 l/m² 2 min 0 min 271 W/m² 29,0 km/h (5 Bft) 100,00 %
17.02.2026 16:22 6,4 °C 6,7 °C 2,2 °C 87 % 1009,9 hPa 0,0 l/m² 2 min 0 min 187 W/m² 25,7 km/h (4 Bft) 100,00 %
17.02.2026 16:24 6,4 °C 6,1 °C 2,2 °C 87 % 1010,0 hPa 0,0 l/m² 2 min 0 min 126 W/m² 35,4 km/h (5 Bft) 100,00 %
17.02.2026 16:26 6,3 °C 6,1 °C 2,2 °C 87 % 1010,2 hPa 0,0 l/m² 0 min 0 min 88 W/m² 25,7 km/h (4 Bft) 100,00 %
17.02.2026 16:28 6,2 °C 5,6 °C 1,7 °C 87 % 1010,4 hPa 0,2 l/m² 0 min 0 min 91 W/m² 32,2 km/h (5 Bft) 100,00 %
17.02.2026 16:30 5,8 °C 4,4 °C 0,6 °C 86 % 1010,3 hPa 0,2 l/m² 0 min 2 min 65 W/m² 22,5 km/h (4 Bft) 100,00 %
17.02.2026 16:32 5,5 °C 4,4 °C 0,6 °C 86 % 1010,4 hPa 0,0 l/m² 0 min 2 min 38 W/m² 29,0 km/h (5 Bft) 100,00 %
17.02.2026 16:34 5,3 °C 3,9 °C 0,6 °C 87 % 1010,4 hPa 0,0 l/m² 0 min 0 min 31 W/m² 22,5 km/h (4 Bft) 100,00 %
17.02.2026 16:36 5,2 °C 3,9 °C 0,6 °C 88 % 1010,4 hPa 0,0 l/m² 0 min 0 min 34 W/m² 12,9 km/h (3 Bft) 100,00 %
17.02.2026 16:38 5,0 °C 3,9 °C 0,6 °C 88 % 1010,5 hPa 0,0 l/m² 0 min 0 min 57 W/m² 9,7 km/h (2 Bft) 100,00 %
17.02.2026 16:40 4,9 °C 4,4 °C 0,6 °C 89 % 1010,4 hPa 0,0 l/m² 2 min 0 min 88 W/m² 19,3 km/h (3 Bft) 100,00 %
17.02.2026 16:42 4,9 °C 4,4 °C 0,6 °C 90 % 1010,4 hPa 0,0 l/m² 0 min 0 min 64 W/m² 16,1 km/h (3 Bft) 100,00 %
17.02.2026 16:44 4,9 °C 4,4 °C 0,6 °C 90 % 1010,4 hPa 0,0 l/m² 0 min 0 min 47 W/m² 25,7 km/h (4 Bft) 100,00 %
17.02.2026 16:46 4,9 °C 4,4 °C 0,6 °C 90 % 1010,4 hPa 0,0 l/m² 0 min 0 min 51 W/m² 22,5 km/h (4 Bft) 100,00 %
17.02.2026 16:48 4,9 °C 4,4 °C 0,6 °C 90 % 1010,4 hPa 0,0 l/m² 0 min 0 min 46 W/m² 19,3 km/h (3 Bft) 97,87 %
17.02.2026 16:50 4,9 °C 4,4 °C 0,6 °C 91 % 1010,5 hPa 0,0 l/m² 0 min 0 min 36 W/m² 19,3 km/h (3 Bft) 97,87 %
17.02.2026 16:52 4,9 °C 4,4 °C 0,6 °C 91 % 1010,5 hPa 0,0 l/m² 0 min 0 min 28 W/m² 22,5 km/h (4 Bft) 97,87 %
17.02.2026 16:54 4,9 °C 4,4 °C 0,6 °C 91 % 1010,6 hPa 0,0 l/m² 0 min 0 min 20 W/m² 22,5 km/h (4 Bft) 97,87 %
17.02.2026 16:56 4,9 °C 4,4 °C 0,6 °C 91 % 1010,8 hPa 0,0 l/m² 0 min 0 min 9 W/m² 22,5 km/h (4 Bft) 97,87 %
17.02.2026 16:58 4,9 °C 4,4 °C 0,6 °C 91 % 1010,8 hPa 0,2 l/m² 0 min 0 min 4 W/m² 25,7 km/h (4 Bft) 97,83 %
17.02.2026 17:00 4,8 °C 3,9 °C 0,6 °C 91 % 1010,9 hPa 0,0 l/m² 0 min 0 min 2 W/m² 29,0 km/h (5 Bft) 97,87 %
17.02.2026 17:02 4,7 °C 3,9 °C 0,0 °C 91 % 1010,8 hPa 0,0 l/m² 0 min 0 min 8 W/m² 22,5 km/h (4 Bft) 97,87 %
17.02.2026 17:04 4,6 °C 3,9 °C 0,0 °C 91 % 1010,8 hPa 0,0 l/m² 0 min 0 min 13 W/m² 19,3 km/h (3 Bft) 95,24 %
17.02.2026 17:06 4,4 °C 3,9 °C 0,0 °C 91 % 1010,9 hPa 0,0 l/m² 0 min 0 min 23 W/m² 22,5 km/h (4 Bft) 95,74 %
17.02.2026 17:08 4,3 °C 3,9 °C 0,0 °C 91 % 1010,9 hPa 0,2 l/m² 0 min 0 min 35 W/m² 22,5 km/h (4 Bft) 98,11 %
17.02.2026 17:10 4,3 °C 3,3 °C 0,0 °C 91 % 1011,0 hPa 0,0 l/m² 0 min 0 min 26 W/m² 19,3 km/h (3 Bft) 97,87 %
17.02.2026 17:12 4,3 °C 3,3 °C 0,0 °C 92 % 1010,9 hPa 0,0 l/m² 0 min 0 min 20 W/m² 19,3 km/h (3 Bft) 97,87 %
17.02.2026 17:14 4,2 °C 3,3 °C -0,6 °C 91 % 1010,9 hPa 0,0 l/m² 0 min 0 min 19 W/m² 16,1 km/h (3 Bft) 95,74 %
17.02.2026 17:16 4,1 °C 3,3 °C -0,6 °C 92 % 1010,9 hPa 0,0 l/m² 0 min 0 min 18 W/m² 16,1 km/h (3 Bft) 95,74 %
17.02.2026 17:18 4,1 °C 3,3 °C -0,6 °C 92 % 1010,9 hPa 0,0 l/m² 0 min 0 min 14 W/m² 12,9 km/h (3 Bft) 95,74 %
17.02.2026 17:20 4,0 °C 3,3 °C -0,6 °C 92 % 1010,9 hPa 0,0 l/m² 0 min 0 min 14 W/m² 19,3 km/h (3 Bft) 93,62 %
17.02.2026 17:22 4,0 °C 3,3 °C -0,6 °C 92 % 1011,0 hPa 0,0 l/m² 0 min 0 min 12 W/m² 12,9 km/h (3 Bft) 100,00 %
17.02.2026 17:24 3,9 °C 3,3 °C -0,6 °C 92 % 1011,1 hPa 0,0 l/m² 0 min 0 min 12 W/m² 22,5 km/h (4 Bft) 93,62 %
17.02.2026 17:26 3,9 °C 3,3 °C -0,6 °C 92 % 1011,1 hPa 0,0 l/m² 0 min 0 min 12 W/m² 12,9 km/h (3 Bft) 97,87 %
17.02.2026 17:28 3,9 °C 3,3 °C -0,6 °C 92 % 1011,1 hPa 0,0 l/m² 0 min 0 min 12 W/m² 16,1 km/h (3 Bft) 95,74 %
17.02.2026 17:30 3,9 °C 3,3 °C -0,6 °C 92 % 1011,1 hPa 0,0 l/m² 0 min 0 min 12 W/m² 16,1 km/h (3 Bft) 95,74 %
17.02.2026 17:32 3,9 °C 3,3 °C -0,6 °C 92 % 1011,2 hPa 0,0 l/m² 0 min 0 min 11 W/m² 16,1 km/h (3 Bft) 95,74 %
17.02.2026 17:34 3,8 °C 3,3 °C -0,6 °C 93 % 1011,3 hPa 0,0 l/m² 0 min 0 min 11 W/m² 12,9 km/h (3 Bft) 97,87 %
17.02.2026 17:36 3,8 °C 3,3 °C -0,6 °C 93 % 1011,3 hPa 0,0 l/m² 0 min 0 min 11 W/m² 9,7 km/h (2 Bft) 97,87 %
17.02.2026 17:38 3,8 °C 3,3 °C -0,6 °C 93 % 1011,4 hPa 0,0 l/m² 0 min 0 min 10 W/m² 12,9 km/h (3 Bft) 97,87 %
17.02.2026 17:40 3,8 °C 3,3 °C -0,6 °C 93 % 1011,4 hPa 0,0 l/m² 0 min 0 min 9 W/m² 22,5 km/h (4 Bft) 97,87 %
17.02.2026 17:42 3,8 °C 3,3 °C -0,6 °C 93 % 1011,4 hPa 0,0 l/m² 0 min 0 min 7 W/m² 22,5 km/h (4 Bft) 97,83 %
17.02.2026 17:44 3,8 °C 3,3 °C -0,6 °C 93 % 1011,4 hPa 0,0 l/m² 0 min 0 min 7 W/m² 16,1 km/h (3 Bft) 97,92 %
17.02.2026 17:46 3,8 °C 3,3 °C -0,6 °C 93 % 1011,5 hPa 0,0 l/m² 0 min 0 min 6 W/m² 19,3 km/h (3 Bft) 97,83 %
17.02.2026 17:48 3,8 °C 3,3 °C -0,6 °C 93 % 1011,6 hPa 0,0 l/m² 0 min 0 min 5 W/m² 19,3 km/h (3 Bft) 95,74 %
17.02.2026 17:50 3,8 °C 3,3 °C -0,6 °C 93 % 1011,6 hPa 0,0 l/m² 0 min 0 min 2 W/m² 12,9 km/h (3 Bft) 97,87 %
17.02.2026 17:52 3,8 °C 3,3 °C -0,6 °C 93 % 1011,6 hPa 0,0 l/m² 0 min 0 min 0 W/m² 12,9 km/h (3 Bft) 97,87 %
17.02.2026 17:54 3,8 °C 3,3 °C 0,0 °C 93 % 1011,7 hPa 0,0 l/m² 0 min 0 min 0 W/m² 12,9 km/h (3 Bft) 95,74 %
17.02.2026 17:56 3,8 °C 3,3 °C 0,0 °C 93 % 1011,8 hPa 0,0 l/m² 0 min 0 min 0 W/m² 16,1 km/h (3 Bft) 95,74 %
17.02.2026 17:58 3,8 °C 3,3 °C 0,0 °C 93 % 1011,9 hPa 0,0 l/m² 0 min 0 min 0 W/m² 19,3 km/h (3 Bft) 95,74 %
17.02.2026 18:00 3,8 °C 3,3 °C 0,0 °C 93 % 1011,8 hPa 0,0 l/m² 0 min 0 min 0 W/m² 25,7 km/h (4 Bft) 97,87 %
17.02.2026 18:02 3,8 °C 3,3 °C 0,0 °C 93 % 1011,8 hPa 0,0 l/m² 0 min 0 min 0 W/m² 25,7 km/h (4 Bft) 100,00 %
17.02.2026 18:04 3,8 °C 3,3 °C 0,0 °C 93 % 1011,8 hPa 0,0 l/m² 0 min 0 min 0 W/m² 19,3 km/h (3 Bft) 100,00 %
17.02.2026 18:07 3,8 °C 3,3 °C 0,0 °C 93 % 1011,9 hPa 0,0 l/m² 0 min 0 min 0 W/m² 22,5 km/h (4 Bft) 100,00 %
17.02.2026 18:08 3,7 °C 3,3 °C 0,0 °C 93 % 1011,9 hPa 0,0 l/m² 0 min 0 min 0 W/m² 16,1 km/h (3 Bft) 100,00 %
17.02.2026 18:12 3,7 °C 2,8 °C 0,0 °C 93 % 1012,0 hPa 0,0 l/m² 0 min 0 min 0 W/m² 25,7 km/h (4 Bft) 100,00 %
17.02.2026 18:14 3,6 °C 2,8 °C -0,6 °C 92 % 1012,0 hPa 0,0 l/m² 0 min 0 min 0 W/m² 22,5 km/h (4 Bft) 100,00 %
17.02.2026 18:16 3,6 °C 2,8 °C -0,6 °C 92 % 1012,0 hPa 0,0 l/m² 0 min 0 min 0 W/m² 22,5 km/h (4 Bft) 97,87 %
17.02.2026 18:18 3,6 °C 2,8 °C -0,6 °C 92 % 1012,0 hPa 0,0 l/m² 0 min 0 min 0 W/m² 12,9 km/h (3 Bft) 95,74 %
17.02.2026 18:20 3,5 °C 2,8 °C -0,6 °C 92 % 1012,1 hPa 0,0 l/m² 0 min 0 min 0 W/m² 16,1 km/h (3 Bft) 100,00 %
17.02.2026 18:22 3,5 °C 2,8 °C -0,6 °C 92 % 1012,1 hPa 0,0 l/m² 0 min 0 min 0 W/m² 16,1 km/h (3 Bft) 100,00 %
17.02.2026 18:24 3,4 °C 2,8 °C -0,6 °C 92 % 1012,1 hPa 0,0 l/m² 0 min 0 min 0 W/m² 12,9 km/h (3 Bft) 100,00 %
17.02.2026 18:26 3,4 °C 2,8 °C -0,6 °C 92 % 1012,2 hPa 0,0 l/m² 0 min 0 min 0 W/m² 9,7 km/h (2 Bft) 100,00 %
17.02.2026 18:28 3,4 °C 2,8 °C -0,6 °C 92 % 1012,2 hPa 0,0 l/m² 0 min 0 min 0 W/m² 9,7 km/h (2 Bft) 97,87 %
17.02.2026 18:30 3,4 °C 2,8 °C -0,6 °C 92 % 1012,3 hPa 0,0 l/m² 0 min 0 min 0 W/m² 12,9 km/h (3 Bft) 100,00 %
17.02.2026 18:32 3,3 °C 2,8 °C -0,6 °C 92 % 1012,3 hPa 0,0 l/m² 0 min 0 min 0 W/m² 9,7 km/h (2 Bft) 100,00 %
17.02.2026 18:34 3,3 °C 2,2 °C -0,6 °C 92 % 1012,3 hPa 0,0 l/m² 0 min 0 min 0 W/m² 16,1 km/h (3 Bft) 97,87 %
17.02.2026 18:36 3,3 °C 2,2 °C -0,6 °C 92 % 1012,3 hPa 0,0 l/m² 0 min 0 min 0 W/m² 9,7 km/h (2 Bft) 97,87 %
17.02.2026 18:38 3,3 °C 2,2 °C -0,6 °C 92 % 1012,3 hPa 0,0 l/m² 0 min 0 min 0 W/m² 9,7 km/h (2 Bft) 95,74 %
17.02.2026 18:40 3,2 °C 2,2 °C -0,6 °C 92 % 1012,4 hPa 0,0 l/m² 0 min 0 min 0 W/m² 16,1 km/h (3 Bft) 91,49 %
17.02.2026 18:42 3,2 °C 2,2 °C -0,6 °C 92 % 1012,4 hPa 0,0 l/m² 0 min 0 min 0 W/m² 12,9 km/h (3 Bft) 95,74 %
17.02.2026 18:44 3,2 °C 2,2 °C -0,6 °C 92 % 1012,4 hPa 0,0 l/m² 0 min 0 min 0 W/m² 12,9 km/h (3 Bft) 93,48 %
17.02.2026 18:46 3,2 °C 2,2 °C -0,6 °C 93 % 1012,5 hPa 0,0 l/m² 0 min 0 min 0 W/m² 12,9 km/h (3 Bft) 91,49 %
17.02.2026 18:48 3,2 °C 2,8 °C -0,6 °C 93 % 1012,5 hPa 0,0 l/m² 0 min 0 min 0 W/m² 6,4 km/h (2 Bft) 95,74 %
17.02.2026 18:50 3,2 °C 2,8 °C -0,6 °C 93 % 1012,5 hPa 0,0 l/m² 0 min 0 min 0 W/m² 12,9 km/h (3 Bft) 95,74 %
17.02.2026 18:52 3,2 °C 2,8 °C -0,6 °C 93 % 1012,5 hPa 0,0 l/m² 0 min 0 min 0 W/m² 16,1 km/h (3 Bft) 95,74 %
17.02.2026 18:54 3,2 °C 2,8 °C -0,6 °C 93 % 1012,4 hPa 0,0 l/m² 0 min 0 min 0 W/m² 12,9 km/h (3 Bft) 93,62 %
17.02.2026 18:56 3,2 °C 2,8 °C -0,6 °C 93 % 1012,5 hPa 0,0 l/m² 0 min 0 min 0 W/m² 19,3 km/h (3 Bft) 95,74 %
17.02.2026 18:58 3,2 °C 2,8 °C -0,6 °C 93 % 1012,5 hPa 0,0 l/m² 0 min 0 min 0 W/m² 16,1 km/h (3 Bft) 95,74 %
17.02.2026 19:00 3,2 °C 2,2 °C -0,6 °C 93 % 1012,5 hPa 0,0 l/m² 0 min 0 min 0 W/m² 16,1 km/h (3 Bft) 95,74 %
17.02.2026 19:02 3,2 °C 2,2 °C -0,6 °C 93 % 1012,5 hPa 0,0 l/m² 0 min 0 min 0 W/m² 16,1 km/h (3 Bft) 95,74 %
17.02.2026 19:04 3,2 °C 2,2 °C -0,6 °C 93 % 1012,6 hPa 0,0 l/m² 0 min 0 min 0 W/m² 16,1 km/h (3 Bft) 97,87 %
17.02.2026 19:06 3,2 °C 2,2 °C -0,6 °C 93 % 1012,6 hPa 0,0 l/m² 0 min 0 min 0 W/m² 9,7 km/h (2 Bft) 97,96 %
17.02.2026 19:08 3,2 °C 2,2 °C -0,6 °C 93 % 1012,7 hPa 0,0 l/m² 0 min 0 min 0 W/m² 16,1 km/h (3 Bft) 97,92 %
17.02.2026 19:10 3,2 °C 2,2 °C -0,6 °C 93 % 1012,7 hPa 0,0 l/m² 0 min 0 min 0 W/m² 22,5 km/h (4 Bft) 97,14 %
17.02.2026 19:12 3,2 °C 2,2 °C -0,6 °C 93 % 1012,7 hPa 0,0 l/m² 0 min 0 min 0 W/m² 19,3 km/h (3 Bft) 97,92 %
17.02.2026 19:14 3,2 °C 2,2 °C -0,6 °C 93 % 1012,7 hPa 0,0 l/m² 0 min 0 min 0 W/m² 12,9 km/h (3 Bft) 97,87 %
17.02.2026 19:16 3,2 °C 2,2 °C -0,6 °C 93 % 1012,8 hPa 0,0 l/m² 0 min 0 min 0 W/m² 19,3 km/h (3 Bft) 93,48 %
17.02.2026 19:18 3,2 °C 2,2 °C -0,6 °C 93 % 1012,8 hPa 0,0 l/m² 0 min 0 min 0 W/m² 16,1 km/h (3 Bft) 95,74 %
17.02.2026 19:20 3,1 °C 2,2 °C -0,6 °C 93 % 1012,9 hPa 0,0 l/m² 0 min 0 min 0 W/m² 19,3 km/h (3 Bft) 97,87 %
17.02.2026 19:22 3,1 °C 2,2 °C -0,6 °C 94 % 1012,8 hPa 0,0 l/m² 0 min 0 min 0 W/m² 19,3 km/h (3 Bft) 95,74 %
17.02.2026 19:24 3,1 °C 2,2 °C -0,6 °C 94 % 1012,8 hPa 0,0 l/m² 0 min 0 min 0 W/m² 16,1 km/h (3 Bft) 95,74 %
17.02.2026 19:26 3,1 °C 2,2 °C -0,6 °C 94 % 1012,9 hPa 0,0 l/m² 0 min 0 min 0 W/m² 22,5 km/h (4 Bft) 97,87 %
17.02.2026 19:28 3,1 °C 2,2 °C -0,6 °C 94 % 1012,9 hPa 0,0 l/m² 0 min 0 min 0 W/m² 19,3 km/h (3 Bft) 97,87 %
17.02.2026 19:30 3,1 °C 2,8 °C -0,6 °C 94 % 1013,0 hPa 0,0 l/m² 0 min 0 min 0 W/m² 16,1 km/h (3 Bft) 97,87 %
17.02.2026 19:32 3,2 °C 2,8 °C -0,6 °C 94 % 1013,0 hPa 0,0 l/m² 0 min 0 min 0 W/m² 16,1 km/h (3 Bft) 97,87 %
17.02.2026 19:34 3,2 °C 2,8 °C -0,6 °C 94 % 1013,0 hPa 0,0 l/m² 0 min 0 min 0 W/m² 19,3 km/h (3 Bft) 95,74 %
17.02.2026 19:36 3,2 °C 2,8 °C -0,6 °C 94 % 1012,9 hPa 0,0 l/m² 0 min 0 min 0 W/m² 19,3 km/h (3 Bft) 97,87 %
17.02.2026 19:38 3,2 °C 2,8 °C -0,6 °C 94 % 1012,9 hPa 0,0 l/m² 0 min 0 min 0 W/m² 19,3 km/h (3 Bft) 97,87 %
17.02.2026 19:40 3,2 °C 2,8 °C -0,6 °C 94 % 1013,0 hPa 0,0 l/m² 0 min 0 min 0 W/m² 12,9 km/h (3 Bft) 97,87 %
17.02.2026 19:42 3,2 °C 2,8 °C -0,6 °C 94 % 1013,0 hPa 0,0 l/m² 0 min 0 min 0 W/m² 16,1 km/h (3 Bft) 97,83 %
17.02.2026 19:44 3,2 °C 2,8 °C -0,6 °C 94 % 1013,0 hPa 0,0 l/m² 0 min 0 min 0 W/m² 19,3 km/h (3 Bft) 95,74 %
17.02.2026 19:46 3,2 °C 2,8 °C -0,6 °C 94 % 1013,0 hPa 0,0 l/m² 0 min 0 min 0 W/m² 16,1 km/h (3 Bft) 95,74 %
17.02.2026 19:48 3,2 °C 2,8 °C -0,6 °C 94 % 1013,0 hPa 0,0 l/m² 0 min 0 min 0 W/m² 25,7 km/h (4 Bft) 97,87 %
17.02.2026 19:50 3,3 °C 2,8 °C -0,6 °C 94 % 1013,0 hPa 0,0 l/m² 0 min 0 min 0 W/m² 29,0 km/h (5 Bft) 97,87 %
17.02.2026 19:52 3,3 °C 2,8 °C -0,6 °C 94 % 1013,0 hPa 0,0 l/m² 0 min 0 min 0 W/m² 16,1 km/h (3 Bft) 97,87 %
17.02.2026 19:54 3,3 °C 2,8 °C -0,6 °C 94 % 1013,1 hPa 0,0 l/m² 0 min 0 min 0 W/m² 19,3 km/h (3 Bft) 97,87 %
17.02.2026 19:56 3,3 °C 2,8 °C -0,6 °C 94 % 1013,1 hPa 0,0 l/m² 0 min 0 min 0 W/m² 16,1 km/h (3 Bft) 95,74 %
17.02.2026 19:58 3,3 °C 2,8 °C -0,6 °C 94 % 1013,1 hPa 0,0 l/m² 0 min 0 min 0 W/m² 16,1 km/h (3 Bft) 97,87 %
17.02.2026 20:00 3,3 °C 2,8 °C -0,6 °C 94 % 1013,1 hPa 0,0 l/m² 0 min 0 min 0 W/m² 19,3 km/h (3 Bft) 97,87 %
17.02.2026 20:02 3,3 °C 2,8 °C -0,6 °C 94 % 1013,1 hPa 0,0 l/m² 0 min 0 min 0 W/m² 12,9 km/h (3 Bft) 97,83 %
17.02.2026 20:04 3,3 °C 2,8 °C -0,6 °C 94 % 1013,2 hPa 0,0 l/m² 0 min 0 min 0 W/m² 19,3 km/h (3 Bft) 93,75 %
17.02.2026 20:06 3,3 °C 2,8 °C -0,6 °C 94 % 1013,2 hPa 0,0 l/m² 0 min 0 min 0 W/m² 29,0 km/h (5 Bft) 97,87 %
17.02.2026 20:08 3,3 °C 2,8 °C -0,6 °C 94 % 1013,3 hPa 0,0 l/m² 0 min 0 min 0 W/m² 22,5 km/h (4 Bft) 97,87 %
17.02.2026 20:10 3,3 °C 2,8 °C -0,6 °C 94 % 1013,3 hPa 0,0 l/m² 0 min 0 min 0 W/m² 19,3 km/h (3 Bft) 95,74 %
17.02.2026 20:12 3,3 °C 2,8 °C -0,6 °C 94 % 1013,3 hPa 0,0 l/m² 0 min 0 min 0 W/m² 19,3 km/h (3 Bft) 97,87 %
17.02.2026 20:14 3,3 °C 2,8 °C -0,6 °C 94 % 1013,4 hPa 0,0 l/m² 0 min 0 min 0 W/m² 16,1 km/h (3 Bft) 91,49 %
17.02.2026 20:16 3,3 °C 2,8 °C -0,6 °C 94 % 1013,4 hPa 0,2 l/m² 0 min 0 min 0 W/m² 12,9 km/h (3 Bft) 95,74 %
17.02.2026 20:18 3,3 °C 2,8 °C -0,6 °C 94 % 1013,4 hPa 0,0 l/m² 0 min 0 min 0 W/m² 12,9 km/h (3 Bft) 95,74 %
17.02.2026 20:20 3,2 °C 2,8 °C -0,6 °C 94 % 1013,4 hPa 0,0 l/m² 0 min 0 min 0 W/m² 32,2 km/h (5 Bft) 97,87 %
17.02.2026 20:22 3,3 °C 2,8 °C -0,6 °C 94 % 1013,4 hPa 0,0 l/m² 0 min 0 min 0 W/m² 22,5 km/h (4 Bft) 97,87 %
17.02.2026 20:24 3,2 °C 2,2 °C -0,6 °C 94 % 1013,3 hPa 0,0 l/m² 0 min 0 min 0 W/m² 16,1 km/h (3 Bft) 100,00 %
17.02.2026 20:26 3,2 °C 2,8 °C -1,1 °C 94 % 1013,4 hPa 0,0 l/m² 0 min 2 min 0 W/m² 29,0 km/h (5 Bft) 93,62 %
17.02.2026 20:28 3,2 °C 2,8 °C -1,1 °C 94 % 1013,4 hPa 0,0 l/m² 0 min 0 min 0 W/m² 12,9 km/h (3 Bft) 95,74 %
17.02.2026 20:30 3,2 °C 2,8 °C -0,6 °C 94 % 1013,4 hPa 0,0 l/m² 0 min 0 min 0 W/m² 12,9 km/h (3 Bft) 97,87 %
17.02.2026 20:32 3,2 °C 2,8 °C -0,6 °C 94 % 1013,4 hPa 0,0 l/m² 0 min 0 min 0 W/m² 16,1 km/h (3 Bft) 97,87 %
17.02.2026 20:34 3,2 °C 2,8 °C -0,6 °C 95 % 1013,4 hPa 0,0 l/m² 0 min 0 min 0 W/m² 19,3 km/h (3 Bft) 97,87 %
17.02.2026 20:36 3,2 °C 2,8 °C -0,6 °C 95 % 1013,4 hPa 0,0 l/m² 0 min 0 min 0 W/m² 12,9 km/h (3 Bft) 95,74 %
17.02.2026 20:38 3,2 °C 2,8 °C -1,1 °C 95 % 1013,3 hPa 0,0 l/m² 0 min 0 min 0 W/m² 12,9 km/h (3 Bft) 97,87 %
17.02.2026 20:40 3,2 °C 2,8 °C -1,1 °C 95 % 1013,4 hPa 0,0 l/m² 0 min 0 min 0 W/m² 9,7 km/h (2 Bft) 97,83 %
17.02.2026 20:42 3,2 °C 2,8 °C -1,1 °C 95 % 1013,4 hPa 0,0 l/m² 0 min 0 min 0 W/m² 16,1 km/h (3 Bft) 93,62 %
17.02.2026 20:44 3,2 °C 2,8 °C -1,1 °C 95 % 1013,4 hPa 0,0 l/m² 0 min 0 min 0 W/m² 12,9 km/h (3 Bft) 97,87 %
17.02.2026 20:46 3,2 °C 2,8 °C -1,1 °C 95 % 1013,4 hPa 0,0 l/m² 0 min 0 min 0 W/m² 12,9 km/h (3 Bft) 95,74 %
17.02.2026 20:48 3,2 °C 2,8 °C -1,1 °C 95 % 1013,4 hPa 0,0 l/m² 0 min 0 min 0 W/m² 22,5 km/h (4 Bft) 100,00 %
17.02.2026 20:50 3,2 °C 2,8 °C -0,6 °C 95 % 1013,4 hPa 0,0 l/m² 0 min 0 min 0 W/m² 12,9 km/h (3 Bft) 100,00 %
17.02.2026 20:52 3,2 °C 2,8 °C -1,1 °C 95 % 1013,4 hPa 0,0 l/m² 0 min 0 min 0 W/m² 16,1 km/h (3 Bft) 100,00 %
17.02.2026 20:54 3,2 °C 2,8 °C -0,6 °C 95 % 1013,4 hPa 0,0 l/m² 0 min 0 min 0 W/m² 16,1 km/h (3 Bft) 95,74 %
17.02.2026 20:56 3,2 °C 2,8 °C -0,6 °C 95 % 1013,5 hPa 0,0 l/m² 0 min 0 min 0 W/m² 9,7 km/h (2 Bft) 100,00 %
17.02.2026 20:58 3,2 °C 2,8 °C -1,1 °C 95 % 1013,5 hPa 0,0 l/m² 0 min 0 min 0 W/m² 12,9 km/h (3 Bft) 100,00 %
17.02.2026 21:00 3,2 °C 2,8 °C -1,1 °C 95 % 1013,6 hPa 0,0 l/m² 0 min 0 min 0 W/m² 12,9 km/h (3 Bft) 100,00 %
17.02.2026 21:02 3,1 °C 2,8 °C -1,1 °C 95 % 1013,6 hPa 0,0 l/m² 0 min 0 min 0 W/m² 16,1 km/h (3 Bft) 97,87 %
17.02.2026 21:04 3,1 °C 2,8 °C -1,1 °C 95 % 1013,7 hPa 0,0 l/m² 0 min 0 min 0 W/m² 9,7 km/h (2 Bft) 100,00 %
17.02.2026 21:06 3,1 °C 2,8 °C -1,1 °C 95 % 1013,7 hPa 0,0 l/m² 0 min 0 min 0 W/m² 12,9 km/h (3 Bft) 100,00 %
17.02.2026 21:08 3,1 °C 2,8 °C -1,1 °C 95 % 1013,7 hPa 0,0 l/m² 0 min 0 min 0 W/m² 12,9 km/h (3 Bft) 97,14 %
17.02.2026 21:10 3,1 °C 2,2 °C -1,1 °C 95 % 1013,7 hPa 0,0 l/m² 0 min 0 min 0 W/m² 12,9 km/h (3 Bft) 100,00 %
17.02.2026 21:12 3,1 °C 2,2 °C -1,1 °C 94 % 1013,7 hPa 0,0 l/m² 0 min 0 min 0 W/m² 16,1 km/h (3 Bft) 100,00 %
17.02.2026 21:14 3,1 °C 2,2 °C -1,1 °C 94 % 1013,7 hPa 0,0 l/m² 0 min 0 min 0 W/m² 16,1 km/h (3 Bft) 100,00 %
17.02.2026 21:16 3,0 °C 2,2 °C -1,1 °C 94 % 1013,8 hPa 0,0 l/m² 0 min 0 min 0 W/m² 16,1 km/h (3 Bft) 100,00 %
17.02.2026 21:18 3,0 °C 2,2 °C -1,1 °C 94 % 1013,8 hPa 0,0 l/m² 0 min 0 min 0 W/m² 12,9 km/h (3 Bft) 97,87 %
17.02.2026 21:20 3,0 °C 2,2 °C -1,1 °C 94 % 1013,7 hPa 0,0 l/m² 0 min 0 min 0 W/m² 16,1 km/h (3 Bft) 100,00 %
17.02.2026 21:22 3,0 °C 2,2 °C -1,1 °C 94 % 1013,9 hPa 0,0 l/m² 0 min 0 min 0 W/m² 16,1 km/h (3 Bft) 97,87 %
17.02.2026 21:24 2,9 °C 2,2 °C -1,1 °C 94 % 1013,8 hPa 0,0 l/m² 0 min 0 min 0 W/m² 12,9 km/h (3 Bft) 100,00 %
17.02.2026 21:26 2,9 °C 2,2 °C -1,1 °C 94 % 1013,8 hPa 0,0 l/m² 0 min 0 min 0 W/m² 12,9 km/h (3 Bft) 100,00 %
17.02.2026 21:28 3,0 °C 2,2 °C -1,1 °C 94 % 1013,8 hPa 0,0 l/m² 0 min 0 min 0 W/m² 16,1 km/h (3 Bft) 97,87 %
17.02.2026 21:30 3,0 °C 2,2 °C -1,1 °C 94 % 1013,8 hPa 0,0 l/m² 0 min 0 min 0 W/m² 16,1 km/h (3 Bft) 100,00 %
17.02.2026 21:32 3,0 °C 2,2 °C -1,1 °C 94 % 1013,8 hPa 0,0 l/m² 0 min 0 min 0 W/m² 12,9 km/h (3 Bft) 97,87 %
17.02.2026 21:34 3,0 °C 2,2 °C -0,6 °C 94 % 1013,8 hPa 0,0 l/m² 0 min 0 min 0 W/m² 12,9 km/h (3 Bft) 100,00 %
17.02.2026 21:36 3,0 °C 2,8 °C -0,6 °C 94 % 1013,7 hPa 0,0 l/m² 0 min 0 min 0 W/m² 12,9 km/h (3 Bft) 100,00 %
17.02.2026 21:38 3,0 °C 2,8 °C -0,6 °C 94 % 1013,7 hPa 0,0 l/m² 0 min 0 min 0 W/m² 12,9 km/h (3 Bft) 100,00 %
17.02.2026 21:40 3,1 °C 2,8 °C -0,6 °C 94 % 1013,7 hPa 0,0 l/m² 0 min 0 min 0 W/m² 16,1 km/h (3 Bft) 97,87 %
17.02.2026 21:42 3,1 °C 2,2 °C -0,6 °C 94 % 1013,7 hPa 0,0 l/m² 0 min 0 min 0 W/m² 12,9 km/h (3 Bft) 97,87 %
17.02.2026 21:44 3,0 °C 2,2 °C -0,6 °C 94 % 1013,7 hPa 0,0 l/m² 0 min 0 min 0 W/m² 16,1 km/h (3 Bft) 100,00 %
17.02.2026 21:46 3,0 °C 2,2 °C -1,1 °C 93 % 1013,7 hPa 0,0 l/m² 0 min 0 min 0 W/m² 9,7 km/h (2 Bft) 100,00 %
17.02.2026 21:48 3,0 °C 2,2 °C -1,1 °C 94 % 1013,8 hPa 0,0 l/m² 0 min 0 min 0 W/m² 12,9 km/h (3 Bft) 100,00 %
17.02.2026 21:50 2,9 °C 2,2 °C -1,1 °C 94 % 1013,8 hPa 0,0 l/m² 0 min 0 min 0 W/m² 16,1 km/h (3 Bft) 97,87 %
17.02.2026 21:52 2,9 °C 2,2 °C -1,1 °C 93 % 1013,8 hPa 0,0 l/m² 0 min 0 min 0 W/m² 22,5 km/h (4 Bft) 95,74 %
17.02.2026 21:54 2,9 °C 2,2 °C -1,1 °C 93 % 1013,9 hPa 0,0 l/m² 0 min 0 min 0 W/m² 19,3 km/h (3 Bft) 97,87 %
17.02.2026 21:56 2,9 °C 2,2 °C -0,6 °C 93 % 1013,9 hPa 0,0 l/m² 0 min 0 min 0 W/m² 16,1 km/h (3 Bft) 95,74 %
17.02.2026 21:58 3,0 °C 2,2 °C -0,6 °C 93 % 1013,9 hPa 0,0 l/m² 0 min 0 min 0 W/m² 16,1 km/h (3 Bft) 97,87 %
17.02.2026 22:00 3,0 °C 2,2 °C -0,6 °C 94 % 1013,9 hPa 0,0 l/m² 0 min 0 min 0 W/m² 19,3 km/h (3 Bft) 95,74 %
17.02.2026 22:02 3,1 °C 2,8 °C -0,6 °C 93 % 1013,8 hPa 0,0 l/m² 0 min 0 min 0 W/m² 19,3 km/h (3 Bft) 93,62 %
17.02.2026 22:04 3,1 °C 2,8 °C -0,6 °C 93 % 1013,8 hPa 0,0 l/m² 0 min 0 min 0 W/m² 12,9 km/h (3 Bft) 93,62 %
17.02.2026 22:06 3,1 °C 2,8 °C -0,6 °C 93 % 1013,8 hPa 0,0 l/m² 0 min 0 min 0 W/m² 19,3 km/h (3 Bft) 91,49 %
17.02.2026 22:08 3,1 °C 2,8 °C -0,6 °C 93 % 1013,8 hPa 0,0 l/m² 0 min 0 min 0 W/m² 29,0 km/h (5 Bft) 93,62 %
17.02.2026 22:10 3,0 °C 2,8 °C -0,6 °C 93 % 1013,9 hPa 0,0 l/m² 0 min 0 min 0 W/m² 19,3 km/h (3 Bft) 92,11 %
17.02.2026 22:12 3,0 °C 2,2 °C -0,6 °C 93 % 1013,9 hPa 0,0 l/m² 0 min 0 min 0 W/m² 16,1 km/h (3 Bft) 93,62 %
17.02.2026 22:14 3,0 °C 2,2 °C -0,6 °C 93 % 1013,9 hPa 0,0 l/m² 0 min 0 min 0 W/m² 16,1 km/h (3 Bft) 93,62 %
17.02.2026 22:16 2,9 °C 2,2 °C -1,1 °C 93 % 1013,9 hPa 0,0 l/m² 0 min 0 min 0 W/m² 12,9 km/h (3 Bft) 91,49 %
17.02.2026 22:18 2,9 °C 2,2 °C -1,1 °C 93 % 1013,9 hPa 0,0 l/m² 0 min 0 min 0 W/m² 12,9 km/h (3 Bft) 91,30 %
17.02.2026 22:20 2,9 °C 2,2 °C -1,1 °C 93 % 1014,0 hPa 0,0 l/m² 0 min 0 min 0 W/m² 16,1 km/h (3 Bft) 93,62 %
17.02.2026 22:22 2,8 °C 2,2 °C -1,1 °C 93 % 1014,0 hPa 0,0 l/m² 0 min 0 min 0 W/m² 19,3 km/h (3 Bft) 93,62 %
17.02.2026 22:24 2,8 °C 2,2 °C -1,1 °C 93 % 1014,0 hPa 0,0 l/m² 0 min 0 min 0 W/m² 9,7 km/h (2 Bft) 93,62 %
17.02.2026 22:26 2,8 °C 2,2 °C -1,1 °C 93 % 1014,1 hPa 0,0 l/m² 0 min 0 min 0 W/m² 12,9 km/h (3 Bft) 93,62 %
17.02.2026 22:28 2,8 °C 2,2 °C -1,1 °C 93 % 1014,1 hPa 0,0 l/m² 0 min 0 min 0 W/m² 12,9 km/h (3 Bft) 93,62 %
17.02.2026 22:30 2,8 °C 2,2 °C -1,1 °C 93 % 1014,1 hPa 0,0 l/m² 0 min 0 min 0 W/m² 6,4 km/h (2 Bft) 93,62 %
17.02.2026 22:32 2,7 °C 2,2 °C -1,1 °C 93 % 1014,1 hPa 0,0 l/m² 0 min 0 min 0 W/m² 6,4 km/h (2 Bft) 93,62 %
17.02.2026 22:34 2,7 °C 2,2 °C -1,1 °C 93 % 1014,1 hPa 0,0 l/m² 0 min 0 min 0 W/m² 6,4 km/h (2 Bft) 93,62 %
17.02.2026 22:36 2,7 °C 2,2 °C -1,1 °C 93 % 1014,1 hPa 0,0 l/m² 0 min 0 min 0 W/m² 9,7 km/h (2 Bft) 95,74 %
17.02.2026 22:38 2,7 °C 2,2 °C -1,1 °C 93 % 1014,2 hPa 0,0 l/m² 0 min 0 min 0 W/m² 12,9 km/h (3 Bft) 97,87 %
17.02.2026 22:40 2,7 °C 2,2 °C -1,1 °C 93 % 1014,1 hPa 0,0 l/m² 0 min 0 min 0 W/m² 16,1 km/h (3 Bft) 97,87 %
17.02.2026 22:42 2,7 °C 2,2 °C -1,1 °C 93 % 1014,1 hPa 0,0 l/m² 0 min 0 min 0 W/m² 16,1 km/h (3 Bft) 97,83 %
17.02.2026 22:44 2,7 °C 2,2 °C -1,1 °C 93 % 1014,1 hPa 0,0 l/m² 0 min 0 min 0 W/m² 16,1 km/h (3 Bft) 95,74 %
17.02.2026 22:46 2,7 °C 2,2 °C -1,1 °C 93 % 1014,2 hPa 0,0 l/m² 0 min 0 min 0 W/m² 19,3 km/h (3 Bft) 97,87 %
17.02.2026 22:48 2,7 °C 2,2 °C -1,1 °C 93 % 1014,3 hPa 0,0 l/m² 0 min 0 min 0 W/m² 9,7 km/h (2 Bft) 97,87 %
17.02.2026 22:50 2,7 °C 2,2 °C -1,1 °C 93 % 1014,2 hPa 0,0 l/m² 0 min 0 min 0 W/m² 12,9 km/h (3 Bft) 97,87 %
17.02.2026 22:52 2,7 °C 2,2 °C -1,1 °C 93 % 1014,2 hPa 0,0 l/m² 0 min 0 min 0 W/m² 9,7 km/h (2 Bft) 95,74 %
17.02.2026 22:54 2,7 °C 2,2 °C -1,1 °C 93 % 1014,2 hPa 0,0 l/m² 0 min 0 min 0 W/m² 12,9 km/h (3 Bft) 95,74 %
17.02.2026 22:56 2,7 °C 2,2 °C -1,1 °C 93 % 1014,2 hPa 0,0 l/m² 0 min 0 min 0 W/m² 16,1 km/h (3 Bft) 97,87 %
17.02.2026 22:58 2,7 °C 1,7 °C -1,1 °C 93 % 1014,4 hPa 0,0 l/m² 0 min 0 min 0 W/m² 12,9 km/h (3 Bft) 100,00 %
17.02.2026 23:00 2,7 °C 2,2 °C -1,1 °C 93 % 1014,3 hPa 0,0 l/m² 0 min 0 min 0 W/m² 12,9 km/h (3 Bft) 97,87 %
17.02.2026 23:02 2,6 °C 2,2 °C -1,1 °C 93 % 1014,3 hPa 0,0 l/m² 0 min 0 min 0 W/m² 16,1 km/h (3 Bft) 100,00 %
17.02.2026 23:04 2,6 °C 2,2 °C -1,1 °C 93 % 1014,2 hPa 0,0 l/m² 0 min 0 min 0 W/m² 6,4 km/h (2 Bft) 100,00 %
17.02.2026 23:06 2,7 °C 2,2 °C -1,1 °C 93 % 1014,3 hPa 0,0 l/m² 0 min 0 min 0 W/m² 12,9 km/h (3 Bft) 100,00 %
17.02.2026 23:08 2,7 °C 2,2 °C -1,1 °C 93 % 1014,3 hPa 0,0 l/m² 0 min 0 min 0 W/m² 9,7 km/h (2 Bft) 100,00 %
17.02.2026 23:10 2,7 °C 2,2 °C -1,1 °C 93 % 1014,3 hPa 0,0 l/m² 0 min 0 min 0 W/m² 16,1 km/h (3 Bft) 100,00 %
17.02.2026 23:12 2,7 °C 2,2 °C -1,1 °C 93 % 1014,3 hPa 0,0 l/m² 0 min 0 min 0 W/m² 12,9 km/h (3 Bft) 100,00 %
17.02.2026 23:14 2,7 °C 2,2 °C -1,1 °C 93 % 1014,4 hPa 0,0 l/m² 0 min 0 min 0 W/m² 16,1 km/h (3 Bft) 100,00 %
17.02.2026 23:16 2,7 °C 2,2 °C -1,1 °C 93 % 1014,5 hPa 0,0 l/m² 0 min 0 min 0 W/m² 16,1 km/h (3 Bft) 100,00 %
17.02.2026 23:18 2,7 °C 2,2 °C -1,1 °C 94 % 1014,3 hPa 0,0 l/m² 0 min 0 min 0 W/m² 12,9 km/h (3 Bft) 100,00 %
17.02.2026 23:20 2,7 °C 2,2 °C -1,1 °C 94 % 1014,4 hPa 0,0 l/m² 0 min 0 min 0 W/m² 16,1 km/h (3 Bft) 100,00 %
17.02.2026 23:22 2,7 °C 2,2 °C -1,1 °C 93 % 1014,5 hPa 0,0 l/m² 0 min 0 min 0 W/m² 19,3 km/h (3 Bft) 100,00 %
17.02.2026 23:24 2,7 °C 2,2 °C -1,1 °C 93 % 1014,5 hPa 0,0 l/m² 0 min 0 min 0 W/m² 12,9 km/h (3 Bft) 100,00 %
17.02.2026 23:26 2,7 °C 2,2 °C -1,1 °C 93 % 1014,5 hPa 0,0 l/m² 0 min 0 min 0 W/m² 16,1 km/h (3 Bft) 95,74 %
17.02.2026 23:28 2,7 °C 2,2 °C -1,1 °C 93 % 1014,5 hPa 0,0 l/m² 0 min 0 min 0 W/m² 12,9 km/h (3 Bft) 97,87 %
17.02.2026 23:30 2,7 °C 2,2 °C -1,1 °C 93 % 1014,6 hPa 0,0 l/m² 0 min 0 min 0 W/m² 9,7 km/h (2 Bft) 100,00 %
17.02.2026 23:32 2,7 °C 2,2 °C -1,1 °C 93 % 1014,6 hPa 0,0 l/m² 0 min 0 min 0 W/m² 12,9 km/h (3 Bft) 95,74 %
17.02.2026 23:34 2,7 °C 2,2 °C -1,1 °C 93 % 1014,6 hPa 0,0 l/m² 0 min 0 min 0 W/m² 19,3 km/h (3 Bft) 100,00 %
17.02.2026 23:36 2,7 °C 2,2 °C -1,1 °C 93 % 1014,6 hPa 0,0 l/m² 0 min 0 min 0 W/m² 12,9 km/h (3 Bft) 100,00 %
17.02.2026 23:38 2,7 °C 2,2 °C -1,1 °C 93 % 1014,7 hPa 0,0 l/m² 0 min 0 min 0 W/m² 12,9 km/h (3 Bft) 100,00 %
17.02.2026 23:40 2,7 °C 2,2 °C -1,1 °C 93 % 1014,6 hPa 0,0 l/m² 0 min 0 min 0 W/m² 9,7 km/h (2 Bft) 100,00 %
17.02.2026 23:42 2,8 °C 2,2 °C -1,1 °C 93 % 1014,7 hPa 0,0 l/m² 0 min 0 min 0 W/m² 6,4 km/h (2 Bft) 100,00 %
17.02.2026 23:44 2,8 °C 2,2 °C -1,1 °C 93 % 1014,7 hPa 0,0 l/m² 0 min 0 min 0 W/m² 12,9 km/h (3 Bft) 100,00 %
17.02.2026 23:46 2,8 °C 2,2 °C -1,1 °C 93 % 1014,6 hPa 0,0 l/m² 0 min 0 min 0 W/m² 12,9 km/h (3 Bft) 100,00 %
17.02.2026 23:48 2,8 °C 2,2 °C -1,1 °C 93 % 1014,7 hPa 0,0 l/m² 0 min 0 min 0 W/m² 9,7 km/h (2 Bft) 97,83 %
17.02.2026 23:50 2,8 °C 2,2 °C -1,1 °C 93 % 1014,6 hPa 0,0 l/m² 0 min 0 min 0 W/m² 12,9 km/h (3 Bft) 97,87 %
17.02.2026 23:52 2,7 °C 2,2 °C -1,1 °C 93 % 1014,6 hPa 0,0 l/m² 0 min 0 min 0 W/m² 16,1 km/h (3 Bft) 95,74 %
17.02.2026 23:54 2,8 °C 2,2 °C -1,1 °C 93 % 1014,6 hPa 0,0 l/m² 0 min 0 min 0 W/m² 12,9 km/h (3 Bft) 97,87 %
17.02.2026 23:56 2,8 °C 2,2 °C -1,1 °C 93 % 1014,6 hPa 0,0 l/m² 0 min 0 min 0 W/m² 12,9 km/h (3 Bft) 97,87 %
17.02.2026 23:58 2,8 °C 2,2 °C -1,1 °C 93 % 1014,6 hPa 0,0 l/m² 0 min 0 min 0 W/m² 12,9 km/h (3 Bft) 97,87 %
_ Min-Zeit 23:02 22:58 20:26 16:30 00:00 - - - - 04:56 06:08
Minimum _ 2,6 °C 1,7 °C -1,1 °C 86 % 1000,1 hPa - - - - 0,0 km/h (0 Bft) 83,33 %
_ Max-Zeit 15:04 14:12 16:04 07:12 23:38 11:14 11:40 03:06 14:24 16:12 00:42
Maximum _ 6,6 °C 11,1 °C 2,8 °C 99 % 1014,7 hPa 0,5 l/m² 2 min 2 min 514 W/m² 35,4 km/h
O-NO (5 Bft)
100,00 %
Durchschnitt _ 4,0 °C 3,8 °C 0,1 °C 96 % 1007,6 hPa #7,2 l/m² #1:52 h #14 min. 104 W/m² 12,4 km/h (3 Bft) 97,42 %
© 2026 W. Hausmann